GEFSCGP_500_meanwind_000.txt.gz
Wind_Speed
13 16 18 19 21 24 24 24 27 31 34 35 41 44 45 46 46 46 45 45 45 46 47 48 50 50 50 50 50 51 51 52 52 55 54 57 61 63 59 59 61 60 57 56
18 21 19 20 22 23 24 25 27 27 28 28 32 34 36 39 41 43 43 43 43 43 44 45 45 45 45 47 48 50 51 53 54 53 51 57 65 63 53 57 64 67 60 55
23 24 23 24 26 26 27 29 31 31 31 31 35 32 34 34 36 38 39 40 40 39 38 40 41 42 44 45 46 47 46 48 48 47 49 50 53 59 61 66 71 66 57 52
24 24 25 27 29 27 29 32 32 32 31 32 36 35 37 39 37 39 41 42 42 41 40 41 42 42 42 43 43 43 43 44 44 44 45 47 48 47 51 56 59 60 57 51
27 26 27 29 31 29 32 32 31 30 29 30 30 32 30 35 34 36 39 40 39 38 38 39 39 38 37 37 36 36 38 40 41 40 42 45 49 49 49 50 50 49 49 49
16 18 19 20 21 22 23 24 25 26 25 24 26 26 23 28 29 31 31 31 31 30 31 31 31 31 32 33 34 35 38 40 42 42 42 44 47 49 49 48 47 45 43 45
9 11 12 12 12 14 15 16 16 16 15 18 25 24 25 27 27 28 29 29 28 28 29 30 31 32 34 37 38 39 40 41 41 43 45 47 48 50 51 49 45 42 42 43
9 11 13 12 11 14 14 14 15 14 13 15 18 20 23 24 26 27 28 29 30 30 31 32 32 32 34 37 39 40 39 39 42 44 47 49 48 51 52 48 40 33 32 35
7 8 8 9 9 10 11 11 13 15 17 17 18 19 22 24 28 28 29 30 32 32 33 34 34 34 36 37 38 38 38 40 44 47 49 45 47 47 46 43 36 28 26 26
5 8 11 12 12 13 13 15 18 21 22 25 24 25 27 30 33 33 31 31 33 33 34 35 36 36 37 36 37 38 39 41 45 44 42 41 38 36 37 37 38 32 25 21
9 11 14 15 15 17 20 22 24 26 29 32 34 31 29 33 38 40 37 34 35 35 36 37 38 38 38 37 36 37 38 41 40 37 35 29 29 27 32 37 35 32 26 22
17 17 18 19 21 23 24 23 27 31 33 35 38 36 32 36 42 44 40 36 36 35 36 36 37 38 37 35 31 34 37 38 37 36 29 25 21 22 23 23 23 21 28 29
13 15 16 17 20 23 23 23 26 30 33 34 37 34 36 35 40 40 39 37 35 31 34 35 35 34 33 30 28 32 31 32 36 29 16 17 17 16 18 20 24 28 29 28
12 13 14 16 19 23 24 25 27 29 29 30 29 31 30 31 33 34 36 34 32 28 30 31 31 30 29 26 27 27 27 30 34 29 35 29 23 19 17 22 27 33 34 30
14 15 17 17 19 22 22 22 26 29 26 28 29 31 31 33 33 34 33 32 30 29 29 31 30 27 25 24 25 24 26 31 35 32 31 31 28 25 17 10 17 24 25 25
17 17 18 18 22 22 21 24 27 28 29 30 32 32 32 30 32 33 33 32 28 26 27 29 25 23 22 21 21 22 24 30 32 27 22 20 21 17 15 11 9 12 15 17
19 20 20 20 21 20 18 21 23 26 25 30 32 32 31 32 32 32 32 28 26 27 26 25 22 21 19 16 16 19 22 26 26 20 15 15 18 21 18 16 15 15 18 19
21 22 22 19 18 17 18 20 23 24 25 31 30 29 31 33 34 35 34 30 26 24 25 25 23 20 18 16 14 15 16 17 18 16 12 11 14 17 18 16 18 20 17 17
25 25 26 26 22 21 22 20 23 25 24 31 32 32 34 34 34 34 37 33 29 24 25 25 24 21 18 17 15 13 13 14 14 14 13 12 13 14 16 17 21 22 22 21
26 26 26 27 28 24 27 27 29 30 31 31 30 31 34 37 36 34 37 36 33 26 24 24 24 22 18 15 14 12 9 8 10 12 14 17 18 20 21 20 22 26 26 23
28 30 31 32 31 32 32 32 33 35 36 36 35 34 34 36 37 36 36 37 35 31 25 23 23 24 19 14 13 11 8 6 6 8 10 14 16 17 16 16 20 23 22 20
30 33 36 37 37 37 36 38 39 41 41 40 39 40 40 39 37 37 37 36 36 34 28 22 22 23 20 19 18 17 14 11 10 12 12 13 13 13 12 12 13 13 11 11
33 37 40 41 41 43 43 44 48 50 48 48 47 45 42 40 39 36 37 37 35 36 31 25 25 25 22 21 20 20 19 16 15 14 12 11 10 9 8 7 6 7 9 9
40 43 44 44 45 48 49 53 56 57 56 54 52 52 50 44 41 36 35 38 36 36 36 30 27 26 25 25 24 22 20 18 17 14 11 8 6 5 5 5 5 7 8 9
46 47 47 47 51 52 52 55 57 59 62 62 58 51 49 46 46 44 39 37 40 39 37 33 30 29 29 29 27 26 25 21 19 16 13 10 7 6 5 6 7 7 8 9
45 46 48 50 54 56 55 58 61 61 64 65 60 49 45 51 49 44 43 40 40 39 39 35 33 33 29 29 29 27 25 23 21 20 17 16 13 11 10 10 9 9 10 10

GEFSCGP_500_meanwind_006.txt.gz
Wind_Speed
4 6 5 10 14 15 16 19 20 20 23 37 40 33 26 31 41 41 40 41 41 40 40 40 41 40 40 40 41 41 41 42 42 42 42 42 43 43 43 44 45 47 49 50
2 7 12 12 11 12 13 14 17 18 24 32 33 30 26 26 35 40 37 38 39 39 38 39 39 40 40 40 40 41 42 43 43 44 44 43 43 43 43 45 46 47 48 49
8 14 17 13 15 16 16 15 19 24 29 30 30 32 27 25 35 38 37 37 37 37 37 37 39 41 42 43 43 43 44 45 45 46 46 45 44 44 45 46 47 47 49 50
12 17 20 18 16 18 20 21 28 30 30 31 30 34 28 25 35 37 36 34 33 34 35 36 37 38 39 40 41 42 43 43 43 45 45 45 44 45 46 47 48 49 51 52
13 20 22 20 19 22 26 27 29 29 28 28 23 24 22 22 30 33 33 32 29 30 33 34 35 36 37 37 38 38 38 38 39 40 41 42 43 44 45 47 48 49 49 50
12 16 17 15 15 18 19 18 18 17 17 18 17 18 16 22 26 31 35 36 35 34 33 33 34 34 35 36 36 37 38 38 38 39 40 42 43 44 45 46 47 48 49 49
10 11 14 13 12 14 14 13 12 9 9 15 17 16 16 25 29 32 35 38 39 38 37 37 37 37 36 37 37 38 39 40 41 42 45 46 47 47 47 48 49 50 50 50
6 8 10 10 9 11 11 10 10 12 10 12 14 17 20 28 30 29 31 34 38 40 42 42 41 40 40 40 39 39 40 41 43 45 46 48 50 49 49 50 51 50 50 49
9 8 9 12 11 12 12 10 11 15 14 14 13 14 21 30 33 34 36 37 38 40 42 44 44 44 44 43 42 42 42 43 44 45 46 47 48 48 48 49 49 50 50 49
10 10 10 14 17 15 16 16 18 20 21 20 19 17 21 31 35 39 38 38 39 39 40 41 43 43 44 44 44 44 44 44 44 44 44 45 45 46 46 46 48 49 48 45
14 13 12 13 16 17 19 21 21 22 23 25 25 21 19 28 32 34 34 34 34 35 36 39 41 42 43 43 43 43 43 42 43 43 42 42 43 43 43 44 44 43 39 37
11 12 11 12 12 13 16 19 21 24 24 25 26 21 19 25 27 31 33 35 35 35 36 38 40 41 42 42 42 41 40 39 40 40 40 39 39 39 39 39 36 33 31 29
10 10 11 10 12 13 18 22 24 25 25 25 25 21 19 27 32 35 35 35 36 37 39 40 40 41 42 42 41 41 38 37 37 36 36 35 35 34 33 31 28 26 24 22
11 11 12 13 13 16 19 22 24 26 27 26 25 26 25 29 32 33 33 34 35 37 38 40 42 42 41 40 40 39 37 36 34 32 31 31 30 29 26 23 21 20 20 18
9 10 13 14 16 17 18 19 21 23 24 26 26 27 29 32 34 35 36 37 38 38 39 40 42 42 41 40 39 37 34 32 31 28 27 26 25 23 19 18 17 15 14 15
12 11 12 13 17 18 18 19 21 23 25 28 30 32 32 34 35 36 37 40 43 42 41 41 42 42 41 40 39 36 32 30 29 26 24 23 22 18 16 15 14 13 11 10
16 16 16 15 18 19 21 23 25 26 28 32 36 39 41 41 40 38 37 39 43 43 42 42 42 42 41 41 40 36 33 31 29 27 24 22 20 17 15 15 14 13 10 9
18 20 22 22 23 25 22 30 31 31 31 35 39 41 44 44 42 42 43 45 45 45 44 43 42 42 42 41 40 37 33 32 30 28 26 23 19 16 14 14 14 13 10 9
21 23 25 27 29 31 32 36 38 40 41 43 43 45 46 46 46 46 48 49 48 47 48 47 44 41 41 41 41 38 33 32 30 28 26 22 18 15 14 14 13 12 13 12
30 29 30 31 34 39 41 43 44 46 49 51 52 54 54 55 55 54 53 52 50 48 48 49 46 42 40 39 39 38 33 31 30 28 24 21 17 15 13 13 13 13 14 16
31 33 36 38 41 43 48 48 49 51 52 54 56 57 58 59 59 59 58 57 53 50 48 48 47 44 39 38 37 36 33 31 30 27 22 19 17 16 14 13 13 13 14 15
33 35 38 41 43 46 49 52 53 55 57 59 60 62 62 63 63 62 61 58 56 52 47 45 45 43 39 37 36 34 33 32 30 27 23 20 18 17 16 15 13 12 12 11
39 41 42 44 47 51 52 53 55 58 60 61 63 64 66 67 68 68 66 64 61 57 50 44 43 43 39 37 37 35 33 33 32 30 27 24 21 19 17 15 13 12 10 9
42 42 42 44 49 53 54 55 58 61 63 66 68 68 70 73 73 69 66 65 65 63 57 48 44 44 41 38 39 34 32 32 33 33 32 29 25 22 19 16 14 12 10 10
44 43 44 47 51 54 57 60 63 66 69 72 74 75 74 74 71 66 66 68 65 61 58 53 48 46 44 42 40 34 32 32 33 34 35 32 29 25 21 17 15 14 12 11
45 46 48 51 54 58 63 67 70 73 75 77 78 77 77 77 78 76 74 74 73 69 63 55 50 48 47 44 41 37 35 34 34 35 37 35 31 28 24 20 17 15 14 13

GEFSCGP_500_meanwind_012.txt.gz
Wind_Speed
12 13 15 15 15 16 16 15 15 16 16 16 18 22 26 28 30 33 35 35 33 30 28 27 29 31 32 33 34 34 35 36 38 38 39 39 40 40 40 40 40 40 41 41
12 12 11 11 10 11 13 17 21 23 22 23 25 28 30 31 32 33 36 36 33 28 26 27 29 31 31 32 33 35 35 35 36 37 38 38 38 38 38 38 38 39 39 39
11 9 8 8 9 12 15 19 23 27 26 27 28 30 32 33 34 35 36 35 30 26 27 29 31 31 32 33 35 36 36 36 36 37 38 38 38 36 35 36 36 36 36 36
8 10 10 10 12 16 20 22 22 22 27 32 34 36 34 35 35 34 32 30 27 26 27 29 30 32 32 34 36 36 36 36 37 38 38 39 40 39 39 38 38 38 37 37
8 11 11 11 12 16 20 20 19 18 19 23 28 33 28 25 25 25 25 23 22 22 24 28 30 31 32 33 34 36 38 39 40 41 41 41 41 42 42 41 41 40 40 40
7 8 8 8 8 10 11 11 11 12 13 14 17 19 17 16 16 16 18 19 20 23 26 28 29 29 30 31 33 34 37 38 40 42 43 43 43 43 43 42 42 41 41 41
4 5 5 5 5 5 6 6 6 8 10 10 12 15 15 15 15 17 20 22 25 26 27 27 28 28 29 29 31 32 34 36 38 40 41 43 43 44 44 44 43 42 41 40
5 5 6 6 7 8 8 8 7 5 6 7 12 16 17 17 19 22 25 27 28 28 27 27 29 30 31 31 33 34 36 37 38 39 39 40 41 42 43 44 45 44 43 42
9 8 9 11 12 10 9 9 9 9 9 9 11 18 21 22 24 26 27 28 28 28 28 30 32 33 34 35 36 38 38 39 39 40 40 39 39 40 41 42 43 44 44 43
9 8 8 11 12 10 10 10 11 12 12 11 8 11 19 23 25 27 28 29 29 29 30 32 33 33 34 35 37 38 39 40 40 41 41 40 39 38 39 40 40 40 41 41
12 8 7 10 10 11 12 10 11 12 14 15 13 9 16 21 24 27 28 28 29 30 31 33 35 35 35 36 37 39 39 40 41 41 41 40 38 37 37 38 38 38 37 38
12 10 9 12 12 12 13 14 15 16 16 18 19 15 18 22 25 27 29 31 32 33 34 36 39 40 39 38 38 39 40 40 41 42 41 40 38 36 34 34 34 33 34 34
12 12 12 14 15 15 16 17 18 19 20 20 21 23 24 26 29 31 33 35 35 37 38 40 43 45 44 42 40 40 41 40 40 41 41 39 37 35 32 30 29 29 29 29
12 13 14 14 17 18 18 19 21 23 23 23 23 27 30 30 32 34 35 36 38 40 43 45 47 48 48 47 45 43 43 42 41 40 39 38 36 35 32 30 28 27 26 26
14 14 14 16 19 19 19 20 22 24 26 27 28 31 32 34 35 37 38 40 42 45 47 48 49 50 51 51 50 48 45 44 42 39 38 36 35 34 32 30 28 26 24 23
18 16 15 16 20 21 22 24 26 26 27 28 31 33 35 38 41 42 44 46 48 50 51 51 52 52 53 54 53 51 47 44 42 39 36 35 34 32 31 30 28 25 23 22
20 20 19 18 20 22 25 26 26 27 28 31 33 36 37 40 44 47 48 51 54 56 57 58 57 57 56 56 55 53 48 44 42 39 36 34 32 31 30 29 27 25 22 21
22 22 22 23 23 26 28 29 31 33 34 35 37 39 41 44 48 51 54 57 59 61 62 63 63 62 61 60 58 55 50 44 41 39 37 34 32 30 28 27 26 24 22 20
26 27 29 30 31 32 34 35 37 39 40 40 42 43 46 49 53 56 59 63 64 65 67 68 69 69 68 65 61 58 52 46 42 39 38 35 32 29 28 27 25 23 21 18
30 31 33 35 37 38 38 38 39 43 44 44 47 51 54 58 61 62 64 67 69 71 73 74 74 74 72 69 65 61 56 50 45 40 38 36 34 31 28 26 25 23 21 18
32 33 34 36 39 41 42 41 42 44 48 52 55 59 61 64 68 72 74 77 78 79 79 80 80 79 76 74 70 67 62 54 49 45 41 37 36 33 30 27 25 23 20 18
34 35 36 37 39 39 41 44 46 49 53 57 61 66 70 73 75 77 79 81 82 82 80 79 76 73 70 70 69 67 63 57 52 48 44 40 37 36 32 28 26 23 20 18
34 34 34 35 38 41 44 47 51 55 60 64 69 72 75 78 79 80 81 81 78 75 69 62 57 54 53 54 55 55 56 56 54 52 49 44 39 37 34 31 28 24 20 18
31 32 35 37 40 44 48 53 58 63 68 72 74 76 79 81 82 82 79 72 64 54 48 46 45 45 44 45 45 45 47 51 54 54 51 47 42 38 36 33 30 26 21 18
30 33 37 42 47 52 56 61 66 71 74 75 76 77 77 76 73 68 60 51 44 40 40 41 42 42 42 42 42 42 42 45 50 53 52 47 42 40 37 35 33 28 24 20
35 39 45 50 55 60 65 70 75 78 80 79 77 72 65 60 57 52 47 42 41 41 42 43 43 42 42 41 40 39 39 43 46 48 49 47 44 41 39 37 35 31 26 22

GEFSCGP_500_meanwind_018.txt.gz
Wind_Speed
17 18 20 22 24 27 30 33 35 37 38 39 39 38 37 36 35 34 32 30 28 28 29 31 32 34 35 35 34 33 31 30 30 30 30 31 32 33 35 36 37 38 38 39
11 13 15 18 21 24 27 30 32 34 34 34 35 35 35 34 33 31 30 30 30 31 32 33 34 34 34 34 33 33 32 30 30 30 31 32 33 35 36 37 38 39 39 39
9 10 12 14 17 20 23 26 29 30 31 31 32 32 32 33 32 32 32 32 33 34 34 33 33 33 31 32 32 32 32 31 31 31 31 31 32 33 35 36 38 40 41 41
10 12 13 15 17 19 21 23 25 27 27 28 30 32 31 32 34 35 36 36 37 36 34 33 30 28 29 31 31 32 32 30 29 28 28 28 29 30 32 34 36 37 39 40
11 12 14 16 17 18 20 21 23 24 25 26 29 32 32 33 36 37 38 37 34 32 29 26 25 26 28 30 31 31 29 27 25 24 23 23 25 27 29 32 34 35 37 38
9 9 10 11 11 12 14 16 18 18 18 20 22 23 24 26 28 29 29 29 28 27 25 23 23 25 28 29 30 28 25 23 22 21 21 22 24 26 28 30 33 34 35 37
5 6 7 8 9 11 12 13 14 14 14 15 17 18 18 20 21 22 22 23 24 24 24 24 24 25 26 27 27 25 24 23 23 23 24 25 26 28 29 31 33 35 35 35
4 5 7 9 11 12 13 14 15 15 14 14 17 18 17 19 20 21 22 23 24 24 24 23 23 23 25 26 26 25 24 25 26 27 29 30 31 32 33 33 34 36 36 35
6 5 10 12 12 13 13 13 14 15 15 15 16 17 18 20 21 21 22 22 22 22 22 21 22 24 25 27 28 29 29 30 32 33 34 36 37 37 37 36 36 37 37 36
8 9 10 11 12 12 12 13 14 16 18 18 17 19 21 21 22 24 25 24 24 24 24 25 26 28 30 32 33 34 35 35 36 37 38 39 40 41 41 40 39 38 37 36
11 11 12 13 12 13 14 14 15 17 19 21 20 21 22 23 25 28 29 29 29 30 30 31 32 33 35 37 39 40 40 40 41 41 41 41 42 42 42 42 40 39 37 36
13 14 15 16 15 15 16 17 19 21 22 23 25 28 25 26 28 30 32 33 34 35 36 37 38 40 41 43 44 45 46 46 45 45 44 44 44 44 43 43 41 39 37 36
14 15 15 17 19 19 19 20 22 24 26 26 28 32 32 32 33 34 35 37 38 40 41 43 44 46 47 48 49 49 50 51 50 50 48 48 47 45 44 43 41 39 37 35
15 16 17 19 21 22 22 23 25 28 29 31 31 34 35 37 38 39 40 42 44 45 47 48 50 52 53 53 54 54 54 55 54 54 53 52 50 49 46 44 42 40 38 35
17 18 19 20 22 23 23 23 24 27 30 32 33 35 36 38 40 43 45 47 49 51 52 54 55 56 57 58 58 58 58 58 58 58 58 56 54 53 50 47 44 42 39 35
21 21 21 21 23 24 25 26 27 29 32 34 36 39 40 42 44 46 48 51 53 55 58 60 61 62 63 64 64 63 62 62 63 63 62 61 59 57 55 52 48 44 40 36
23 23 24 24 25 27 28 30 31 33 35 37 40 42 43 45 47 49 52 55 58 60 62 64 65 66 66 67 68 70 70 70 70 69 68 66 64 62 59 55 50 46 42 38
25 26 27 28 29 30 32 33 35 38 40 42 44 46 47 49 51 54 58 61 64 67 69 72 74 76 78 80 81 81 79 79 78 76 74 72 70 67 63 57 50 46 42 38
27 28 29 30 32 34 36 37 39 42 45 47 49 51 54 58 60 61 66 70 73 76 79 81 83 85 86 87 87 86 85 84 82 80 77 74 71 67 63 56 49 46 43 40
27 29 30 32 33 35 36 38 41 45 49 51 55 59 62 66 69 71 74 77 79 81 82 84 84 85 85 85 85 85 82 79 75 71 67 63 61 59 57 54 49 47 44 41
27 28 29 30 32 35 37 40 45 49 53 58 63 67 71 75 78 80 82 83 83 81 79 77 74 72 71 70 69 68 65 60 55 52 49 46 46 47 48 50 49 48 45 43
27 28 29 31 34 37 42 46 50 55 61 66 71 75 79 82 83 83 81 77 72 67 63 60 58 54 52 51 50 48 44 40 38 35 33 33 33 34 38 44 48 48 46 44
29 30 33 36 39 44 49 54 59 64 69 74 78 81 83 83 79 73 66 60 55 51 49 47 46 44 42 42 42 40 37 35 32 31 30 30 30 30 31 38 47 50 46 44
31 34 37 41 45 49 54 60 65 70 75 79 81 80 77 71 63 56 51 47 44 42 43 43 43 42 41 40 39 39 38 37 35 34 33 32 31 30 30 34 45 50 47 44
36 39 43 47 51 55 59 65 71 76 78 79 76 70 62 55 50 46 44 43 43 44 45 45 46 47 46 45 43 42 41 40 39 38 35 33 31 30 30 33 44 50 45 42
39 43 47 51 56 61 65 70 75 78 77 73 65 55 47 46 45 44 45 46 47 48 50 51 53 53 51 50 47 44 43 42 40 38 35 33 32 30 31 33 42 49 46 42

GEFSCGP_500_meanwind_024.txt.gz
Wind_Speed
10 11 12 15 18 23 27 29 31 37 39 39 41 42 43 43 41 39 37 35 33 32 33 34 34 35 36 37 38 38 37 36 33 30 28 26 25 23 21 20 19 19 19 19
5 7 10 12 14 16 19 21 24 30 35 36 38 38 38 38 36 33 31 30 30 30 32 34 35 36 37 38 39 39 38 36 32 29 27 25 22 19 17 16 16 16 17 18
2 6 7 8 9 9 11 13 17 21 25 26 29 27 29 30 29 28 28 28 28 30 32 34 36 38 39 40 40 39 38 35 31 28 26 23 19 17 16 16 17 17 18 19
6 7 8 8 10 10 11 15 16 18 19 18 23 19 22 26 25 27 29 30 31 32 34 36 38 39 39 39 38 37 35 33 31 28 25 23 21 20 19 20 21 21 22 22
9 10 9 9 12 12 14 15 15 16 17 16 18 15 16 23 23 25 28 30 31 32 33 35 37 37 37 36 35 36 36 34 32 29 27 25 24 24 24 25 25 26 26 25
8 8 8 9 10 11 12 12 12 13 13 12 15 11 14 19 19 20 22 23 25 26 29 31 32 34 35 35 36 36 35 34 33 31 30 29 28 29 29 29 29 28 28 27
7 7 8 8 8 11 12 12 11 11 10 11 17 14 18 19 18 19 20 21 23 24 26 29 31 33 35 36 36 36 35 35 35 34 33 32 32 32 32 32 31 30 29 28
6 7 10 10 10 11 11 12 12 12 12 13 17 17 20 19 20 20 21 23 24 26 28 30 33 35 36 37 36 37 37 38 38 38 37 36 35 35 35 34 34 32 31 29
6 7 12 12 10 11 10 11 12 14 14 15 14 20 21 20 22 23 24 26 27 29 30 32 33 35 37 38 39 39 41 42 42 42 41 40 39 39 38 37 36 34 32 31
7 7 9 12 11 10 11 12 13 13 15 15 15 18 23 21 23 25 27 30 32 34 36 37 38 39 40 41 43 44 45 46 46 46 46 44 43 42 41 40 38 36 34 32
7 8 9 12 12 14 14 14 14 16 17 18 18 21 24 25 27 29 32 34 36 38 40 42 43 44 45 46 47 48 49 50 50 51 50 50 49 48 46 44 42 39 37 34
9 10 11 13 15 16 17 17 17 18 20 22 22 27 24 27 30 32 35 37 39 41 43 44 46 48 49 50 52 53 53 55 55 56 56 56 56 54 52 50 47 43 40 37
12 14 15 16 20 20 19 19 20 21 23 25 26 31 30 33 35 37 39 40 42 44 45 47 49 51 53 54 55 57 58 60 61 62 62 62 62 60 58 55 52 49 45 42
15 16 17 16 17 20 22 23 23 24 26 28 30 35 35 37 39 40 42 43 45 46 48 51 53 54 56 58 60 61 63 65 66 67 68 68 68 67 65 63 59 55 52 48
17 17 18 19 20 21 22 23 24 26 28 29 32 35 38 40 42 44 46 48 50 53 55 57 59 61 63 65 67 69 70 71 73 73 74 74 75 74 72 69 66 62 58 53
18 18 19 20 21 23 24 24 26 27 29 32 35 39 42 45 48 50 53 57 60 62 65 67 69 71 73 75 76 77 78 79 80 80 80 80 81 81 78 74 70 67 63 59
19 20 21 22 24 26 26 26 29 31 33 36 41 45 49 52 55 58 62 65 69 72 75 77 80 81 82 82 81 81 81 82 83 84 84 85 85 85 84 81 78 75 71 67
21 22 23 23 25 25 27 29 33 36 38 42 47 50 54 58 62 66 70 75 77 79 80 79 77 73 68 64 61 61 62 63 66 69 72 75 79 80 81 81 80 78 76 72
23 24 24 24 26 31 30 34 37 41 44 48 52 56 60 64 68 72 75 78 77 73 67 61 54 48 44 43 43 43 43 44 45 47 49 52 56 60 64 67 69 71 72 71
25 25 27 28 30 33 37 40 43 47 51 55 59 63 67 72 75 75 73 69 62 55 48 44 41 42 44 44 44 44 43 42 41 41 41 40 41 43 46 49 53 56 59 62
27 28 28 30 33 37 40 44 47 51 56 60 64 69 73 76 76 72 63 55 48 43 42 43 44 45 46 46 47 46 45 43 43 42 40 38 36 35 34 35 37 40 44 48
29 30 32 33 36 41 45 48 51 55 60 65 69 73 75 74 68 60 51 45 43 43 44 45 46 46 47 48 48 46 45 45 45 44 41 38 35 33 31 29 28 29 31 35
30 32 34 36 39 43 48 52 55 60 64 69 72 74 73 68 58 49 44 43 44 45 46 47 48 49 49 49 49 48 47 46 46 44 42 39 36 34 31 28 26 25 26 28
32 34 36 39 42 45 49 54 58 63 68 72 74 73 67 58 50 44 43 44 45 47 48 50 51 51 50 50 50 50 49 48 47 44 42 41 38 34 31 28 27 25 24 23
35 37 40 43 45 48 52 57 62 67 71 74 72 66 59 51 46 44 44 46 48 50 51 52 52 52 52 50 49 48 47 46 45 44 43 41 37 34 32 29 27 26 25 24
36 39 42 45 48 52 56 60 65 69 72 72 67 59 50 47 45 45 46 48 50 52 53 53 54 53 52 50 48 46 46 45 43 41 39 36 36 34 32 30 28 26 25 25

GEFSCGP_500_meanwind_030.txt.gz
Wind_Speed
2 1 2 6 12 16 16 14 13 13 17 24 26 26 25 27 31 33 37 40 42 42 45 46 47 43 42 43 42 40 38 36 36 35 35 34 32 30 30 29 27 26 25 24
4 6 6 9 10 9 9 12 15 17 20 24 29 30 27 28 30 35 38 39 39 43 44 46 44 37 38 40 40 36 34 34 34 34 34 33 32 30 29 27 26 25 24 22
8 7 9 8 6 6 7 10 13 18 22 24 24 22 20 19 24 32 35 34 37 40 43 40 38 36 34 30 24 26 30 32 34 36 35 34 33 31 29 27 25 24 23 22
4 7 11 8 8 8 11 14 18 20 21 20 17 19 18 20 26 32 32 32 35 37 39 41 42 41 39 37 39 35 31 31 34 35 35 33 31 30 28 27 25 23 23 23
5 8 10 8 9 11 12 15 16 14 13 13 13 17 20 23 27 29 30 32 35 37 38 39 40 41 42 41 39 39 36 35 33 34 35 33 31 29 26 25 25 24 24 25
2 5 7 7 8 10 11 10 8 10 16 20 21 20 20 22 25 28 30 32 34 35 36 37 38 39 40 40 40 40 38 37 36 36 35 34 33 30 28 27 27 27 27 28
6 5 4 8 10 12 13 12 10 14 21 25 20 11 19 21 24 27 29 30 31 32 34 36 37 38 39 40 40 40 41 39 38 39 39 37 35 34 33 31 30 30 31 32
9 8 6 10 13 13 11 9 11 16 18 20 23 20 24 25 28 30 30 31 32 34 36 38 39 41 42 43 43 44 44 45 44 43 43 42 41 40 39 37 36 35 35 35
9 8 9 13 14 13 13 10 11 15 15 13 16 28 30 30 31 31 32 35 37 39 40 41 43 45 46 48 49 49 50 50 49 49 49 48 47 47 45 44 43 42 41 40
7 8 6 9 11 13 16 16 15 15 16 16 15 27 31 33 34 34 37 39 40 41 43 44 46 48 50 52 53 54 54 55 55 55 54 54 54 54 53 51 51 50 48 46
8 7 6 8 11 12 14 16 18 19 19 21 21 28 32 35 37 39 40 41 42 44 46 48 50 52 53 55 57 58 58 59 59 59 59 59 59 59 59 58 57 56 55 54
10 9 8 8 11 13 14 19 21 22 22 23 25 32 33 36 39 41 43 46 48 50 51 53 55 57 58 59 61 62 63 64 64 64 64 63 63 63 63 63 63 62 61 59
11 10 10 10 15 17 18 20 23 24 26 27 29 35 36 38 40 43 46 49 52 55 57 59 61 63 64 65 67 68 69 69 70 70 70 70 69 69 69 68 67 66 65 64
11 12 12 11 12 15 17 20 23 25 28 30 32 39 42 43 45 48 52 55 58 61 63 65 67 69 71 72 73 73 74 74 75 75 75 74 74 75 74 74 73 72 71 70
13 14 15 15 14 14 17 21 24 27 30 34 38 42 47 49 52 55 57 60 63 65 68 70 72 74 75 75 74 73 71 69 67 65 64 64 65 67 69 71 73 75 75 75
15 16 17 17 16 16 19 22 25 31 36 40 42 45 50 54 56 58 61 64 67 71 73 74 74 73 71 68 64 59 56 52 49 47 45 44 45 46 49 52 57 62 67 71
17 20 21 20 19 19 22 25 30 35 39 44 47 49 52 55 59 62 65 68 72 73 72 70 66 62 58 53 49 47 44 43 41 40 40 40 40 40 39 40 42 45 49 55
19 21 23 24 23 23 27 30 34 38 41 46 48 51 55 59 62 64 67 69 70 68 64 59 55 50 47 45 43 43 42 43 43 43 43 43 42 41 40 40 39 38 39 42
24 25 25 26 25 29 34 35 39 42 45 50 53 56 60 63 65 66 66 66 63 58 53 50 47 45 44 44 45 46 46 46 45 45 45 45 44 44 43 42 40 39 38 37
26 27 27 28 30 33 36 40 44 47 48 53 57 60 62 65 68 66 63 58 52 49 47 47 47 47 47 48 48 49 48 48 48 48 47 47 46 45 44 42 40 39 37 36
23 26 28 29 32 37 39 44 46 48 51 54 57 60 64 68 67 64 57 50 47 46 47 48 49 50 51 51 51 51 51 52 51 51 49 48 47 46 44 42 39 38 36 35
24 28 30 32 35 39 42 46 49 52 55 58 61 64 67 67 62 56 51 48 47 48 50 51 53 53 53 53 54 54 53 52 52 51 50 48 46 44 42 39 37 36 34 33
27 29 32 35 37 41 45 48 51 55 58 61 63 66 67 64 57 51 48 47 49 51 53 54 55 55 54 54 54 54 53 52 51 49 48 45 42 41 38 36 35 34 33 31
32 32 34 37 39 43 47 50 52 55 59 61 64 66 65 60 54 49 48 50 52 54 54 55 55 56 55 55 54 53 51 49 47 45 43 41 38 36 35 33 32 31 30 29
29 33 36 39 42 44 46 50 53 56 59 62 64 65 62 57 51 49 50 52 53 55 56 56 55 55 53 51 48 46 45 43 41 38 36 35 34 33 31 30 29 28 28 27
33 35 38 41 44 46 49 51 54 57 60 62 64 63 58 53 49 49 51 53 55 56 56 55 54 51 49 47 45 42 39 36 33 31 29 27 26 25 25 25 25 25 25 24

GEFSCGP_500_meanwind_036.txt.gz
Wind_Speed
11 11 10 10 9 9 10 11 13 14 13 13 14 18 23 27 30 33 36 37 39 41 42 42 43 43 43 43 44 45 41 35 28 25 27 27 25 24 23 25 25 24 25 25
8 6 6 5 6 8 10 14 18 19 19 18 20 24 27 30 33 35 36 37 38 40 41 41 41 41 42 43 45 43 38 32 28 25 22 21 20 22 24 24 24 25 26 25
5 5 5 6 8 10 12 15 18 21 24 24 25 28 30 32 34 36 36 35 35 34 35 37 39 40 42 43 41 39 35 32 29 26 22 21 20 21 22 21 21 23 24 25
6 6 5 6 6 7 8 12 14 17 21 24 27 29 32 33 34 36 35 32 30 31 33 36 38 39 40 40 38 36 35 33 31 26 24 23 21 22 21 21 22 22 22 24
5 4 2 1 1 4 6 8 11 12 14 17 19 23 26 28 31 32 33 32 30 31 33 35 37 38 40 40 40 38 37 34 33 30 28 27 26 25 25 25 24 24 24 25
3 1 1 2 3 6 10 11 11 11 10 11 15 18 21 24 25 24 27 30 31 31 32 35 38 40 42 43 43 43 41 39 37 35 34 33 32 31 31 29 28 27 28 28
5 2 2 3 4 6 9 11 10 8 10 12 15 18 20 22 22 22 21 23 25 27 30 34 38 41 44 46 47 47 46 45 44 42 41 40 39 38 37 36 36 35 34 33
9 5 3 6 8 9 10 12 13 13 15 16 17 19 20 22 24 26 26 28 30 31 34 38 41 44 46 48 49 50 50 50 49 48 48 47 46 45 44 43 42 42 42 41
11 8 7 8 10 13 14 15 15 17 17 18 20 21 22 25 28 30 32 34 36 39 42 46 48 50 52 53 54 55 55 54 54 54 53 52 52 51 50 49 48 48 47 47
11 10 10 10 12 15 17 18 18 19 19 21 22 24 27 29 31 34 37 40 42 45 48 51 53 55 57 59 61 61 62 61 60 59 58 58 57 57 56 55 55 54 53 52
11 11 12 12 13 13 15 14 16 18 20 23 26 28 30 33 36 39 41 43 46 49 51 53 56 58 60 62 64 66 67 67 66 65 64 64 63 62 61 61 60 59 58 58
10 11 13 13 14 15 16 16 18 19 22 25 29 32 34 37 40 43 45 48 50 53 56 58 60 62 64 66 68 69 70 70 69 68 67 65 64 63 62 62 63 63 63 63
10 11 11 12 13 15 17 18 20 21 23 27 30 33 37 41 44 46 48 51 54 57 59 61 63 65 67 68 68 68 67 66 65 64 62 60 57 55 54 55 56 58 61 63
10 12 12 14 15 17 18 19 20 22 25 29 33 37 40 42 45 48 51 54 57 60 62 64 66 67 67 65 64 62 60 59 58 56 54 51 48 46 44 43 44 46 50 54
10 12 14 16 18 19 19 19 22 25 28 32 35 38 41 43 46 50 53 57 59 61 64 65 65 64 62 59 58 56 55 53 53 51 50 48 46 44 42 40 39 39 40 43
11 12 13 16 19 20 19 20 24 27 30 32 35 38 41 44 47 50 54 57 60 61 62 61 60 58 56 54 54 53 53 53 53 52 51 50 48 46 43 41 39 38 38 39
11 12 14 17 20 21 21 24 28 31 33 36 39 42 45 47 49 53 57 59 61 60 59 56 54 53 52 53 54 55 55 55 55 55 54 53 51 49 47 45 42 41 40 40
13 15 18 22 25 26 27 30 33 36 38 40 43 46 49 51 53 55 58 59 58 56 53 51 51 52 54 56 57 58 58 57 57 56 55 54 52 50 49 47 45 43 40 38
17 20 23 27 29 31 32 33 36 39 41 43 45 48 50 53 53 53 56 57 55 51 51 52 53 55 57 58 59 58 57 56 56 55 54 52 51 50 49 47 45 43 42 40
20 22 24 27 29 32 33 35 38 40 42 45 47 50 53 56 57 56 57 54 50 50 51 53 55 56 58 58 58 57 55 54 53 51 50 50 49 48 47 46 45 43 42 41
19 22 24 27 30 32 35 38 39 41 44 47 50 54 57 58 59 59 55 50 48 50 52 54 56 57 58 57 56 55 54 52 51 48 46 44 43 43 43 43 43 43 42 41
21 24 26 29 32 34 36 38 41 43 46 50 52 55 57 57 58 56 52 48 48 50 52 54 55 56 56 56 55 53 51 48 46 44 41 39 37 37 38 38 39 40 39 39
21 23 26 29 32 34 37 41 44 46 48 50 52 54 56 57 56 53 49 47 48 50 52 54 56 56 55 54 52 51 47 45 42 38 35 32 30 29 30 31 33 35 35 35
21 23 25 28 31 35 38 40 42 44 46 49 51 54 55 56 55 51 48 47 47 49 51 54 56 56 54 52 50 48 46 42 38 34 30 27 24 23 22 23 25 27 28 29
21 23 25 28 31 34 36 38 40 43 46 48 50 53 55 56 55 51 47 46 47 48 50 53 55 54 53 51 48 45 43 39 35 31 26 22 18 16 15 15 17 19 21 24
22 24 27 29 31 33 36 38 41 44 47 49 51 53 54 55 54 50 46 45 46 47 50 53 54 53 52 50 46 44 41 37 34 30 25 19 14 9 6 7 9 13 16 19

GEFSCGP_500_meanwind_042.txt.gz
Wind_Speed
14 14 15 16 16 16 16 17 19 21 22 22 22 20 19 19 22 25 27 29 31 33 36 38 39 41 42 43 43 41 39 38 36 35 34 32 31 29 27 27 26 27 28 30
11 11 12 13 14 14 15 16 18 20 21 22 22 22 21 21 23 26 29 31 34 36 39 41 42 42 43 43 43 42 40 40 38 36 35 33 31 30 28 25 25 25 25 27
8 9 10 11 11 12 13 14 15 17 18 20 21 22 23 25 27 29 31 34 36 39 41 43 44 42 41 41 41 41 41 41 40 39 37 35 33 31 28 27 26 25 25 27
6 7 8 8 9 10 9 10 11 14 16 17 19 20 20 23 27 30 32 33 34 36 37 38 36 36 37 38 40 41 41 41 41 40 38 37 35 33 32 29 28 28 28 28
3 4 5 6 7 6 6 7 9 10 12 13 14 16 17 20 23 25 27 28 29 29 30 30 30 30 33 35 37 39 41 42 43 42 41 39 38 37 36 34 33 32 32 32
2 0 2 3 4 5 6 7 8 9 10 11 13 15 16 18 20 22 24 26 27 28 29 30 31 32 33 35 38 40 42 43 44 44 43 43 42 41 40 39 38 38 37 36
3 1 1 3 5 6 8 9 10 10 10 11 13 15 17 19 21 23 26 28 29 30 31 33 34 35 37 39 41 43 44 45 45 46 46 46 46 46 45 45 44 44 43 43
2 1 3 5 7 9 10 11 13 14 14 15 16 16 18 20 23 25 28 30 32 34 36 37 38 39 40 41 43 44 45 46 47 47 48 49 49 50 50 50 50 50 49 49
4 3 5 7 8 10 11 12 14 16 16 18 18 18 20 23 26 28 31 33 36 38 39 40 41 42 43 44 45 46 47 47 48 49 50 51 51 52 52 53 54 55 55 55
6 6 7 9 10 11 13 14 15 17 18 20 20 21 23 26 29 32 35 37 38 40 42 44 45 46 47 48 49 50 50 49 49 48 47 47 48 48 49 50 51 53 56 58
8 9 10 11 11 12 13 15 16 18 19 21 23 25 27 30 33 35 37 39 42 44 46 47 49 51 52 54 54 53 52 50 48 46 45 45 46 47 47 47 48 50 52 55
10 11 12 12 12 13 14 16 17 18 20 23 26 28 30 33 35 37 39 42 45 47 49 51 53 54 55 55 54 52 51 50 50 50 50 50 50 50 49 49 49 49 49 51
10 11 12 13 13 14 15 16 18 19 22 25 27 29 32 34 36 39 42 44 47 49 51 53 54 55 54 53 51 50 50 52 53 54 55 55 55 54 53 51 50 50 49 49
11 11 12 12 13 14 15 17 19 22 24 27 28 30 32 34 37 40 43 45 47 49 51 53 53 52 50 49 49 50 52 55 56 57 58 58 58 57 56 54 53 51 50 49
12 13 13 13 14 15 17 20 22 24 26 28 29 31 33 36 39 42 45 46 48 50 51 51 50 48 47 48 50 52 55 56 58 59 60 60 60 59 57 55 53 51 50 49
14 15 15 15 16 17 20 22 24 26 28 29 31 33 35 38 42 45 47 49 50 51 51 50 48 47 48 50 52 55 56 58 60 61 61 60 58 57 55 54 51 50 49 49
14 15 16 17 18 19 21 24 26 27 29 31 33 36 37 39 43 46 48 50 51 51 51 49 47 48 50 52 55 57 58 60 61 59 58 57 57 55 54 52 50 48 46 46
13 14 16 18 20 21 24 26 27 28 30 32 35 38 40 42 44 48 50 51 51 51 50 48 47 48 51 54 56 57 58 59 59 58 58 56 55 52 49 47 46 44 43 43
14 16 18 20 22 23 25 27 29 31 31 34 37 40 42 44 44 46 49 49 50 51 49 48 48 50 52 55 56 56 56 57 57 57 55 53 51 47 44 42 39 38 38 39
15 18 20 22 24 26 26 28 30 32 33 36 39 42 44 47 47 47 49 49 51 51 49 47 48 50 53 55 56 55 55 55 55 55 52 49 45 41 39 35 33 31 32 33
18 20 21 23 24 25 26 28 31 33 35 38 40 43 46 48 50 51 52 52 53 52 48 46 48 51 54 55 55 54 54 54 53 51 49 45 41 38 34 30 27 26 27 29
20 21 22 23 24 25 27 28 30 32 34 37 40 43 45 48 50 51 52 52 53 51 47 46 47 51 53 54 53 52 52 51 50 49 47 43 38 34 30 25 21 20 21 23
20 21 22 23 24 26 27 29 30 32 35 38 40 43 46 49 50 51 52 51 52 51 47 45 47 50 52 53 53 51 50 49 48 46 44 40 36 32 28 22 17 14 14 17
20 21 21 22 23 25 27 28 31 33 36 38 41 44 47 49 51 52 52 51 51 51 46 44 46 49 51 52 52 50 49 48 46 44 42 38 35 31 27 21 15 9 7 11
20 19 20 21 24 26 27 29 32 34 36 38 41 44 47 49 51 52 52 51 51 50 46 44 45 47 49 51 51 49 47 46 45 43 41 37 34 30 26 21 15 9 3 5
20 20 21 23 25 27 29 31 32 34 36 38 41 44 47 49 50 51 52 51 50 49 46 44 44 46 48 49 49 48 46 45 43 41 39 37 34 30 26 22 17 12 6 2

GEFSCGP_500_meanwind_048.txt.gz
Wind_Speed
6 5 5 7 7 8 9 8 10 14 15 17 18 20 20 21 22 22 22 22 23 25 27 29 31 34 36 39 41 43 44 44 43 43 42 41 40 39 38 37 37 35 34 33
3 5 7 6 6 6 6 7 9 12 13 15 16 17 18 18 19 20 21 23 24 26 28 30 32 35 37 39 40 41 41 40 40 40 40 40 40 40 40 39 39 37 35 34
4 8 6 5 5 5 5 6 8 10 11 11 13 13 14 14 15 16 18 20 23 25 28 30 32 34 35 36 37 38 38 38 39 40 40 41 41 41 41 41 40 38 37 35
6 6 6 5 6 4 6 7 7 8 9 11 9 11 13 14 15 17 18 20 22 24 26 28 30 32 33 34 36 37 38 39 40 42 43 43 44 45 45 44 43 41 40 38
5 5 5 6 6 5 6 6 7 8 9 10 10 11 16 15 16 18 20 21 23 25 27 29 31 32 34 36 38 40 41 42 43 45 46 47 48 48 48 47 46 45 44 42
2 2 2 3 3 5 5 7 8 9 9 10 14 12 18 17 18 20 22 24 25 27 29 31 32 34 37 39 41 42 43 45 47 48 49 50 51 51 51 50 49 48 47 46
3 2 2 2 4 6 6 7 8 9 9 13 17 15 17 18 20 22 24 25 27 28 30 32 34 36 38 40 42 43 45 46 48 49 50 51 52 52 52 52 52 51 51 50
3 4 4 4 5 7 7 7 7 8 10 14 16 15 16 18 20 22 24 26 28 30 32 34 36 38 39 41 42 44 44 45 46 48 49 49 49 49 49 49 49 50 50 51
3 5 5 5 5 6 7 7 8 9 10 10 14 15 16 19 21 23 25 27 29 31 34 36 38 40 41 42 42 43 43 43 44 44 43 43 43 43 44 45 46 48 49 50
3 4 5 5 5 5 6 7 8 8 9 10 13 18 20 21 23 25 27 29 31 33 36 38 40 41 42 42 42 42 42 41 40 39 38 39 40 41 43 44 45 47 48 50
4 4 6 6 6 7 7 8 9 10 10 12 12 18 20 22 24 26 28 30 33 35 38 40 41 42 42 42 42 41 41 39 38 38 39 40 42 44 45 46 48 48 49 50
4 5 6 7 7 8 9 10 11 12 13 14 16 20 20 23 25 27 30 33 35 37 40 42 42 42 42 42 42 41 40 39 40 40 42 43 45 47 48 49 49 50 51 52
5 6 7 9 10 10 11 11 12 13 15 16 17 21 22 24 27 30 32 35 37 40 42 42 42 43 43 42 40 39 39 39 41 42 44 46 47 48 49 50 51 52 53 53
6 6 6 7 10 12 13 14 14 15 16 17 19 21 24 27 30 33 35 37 39 42 43 43 43 44 43 41 39 38 39 40 42 44 45 47 49 50 51 51 52 52 53 53
7 7 8 9 11 13 14 15 16 16 16 18 20 22 25 28 32 34 36 39 41 43 44 44 43 44 42 40 38 38 40 42 44 45 46 48 50 50 51 51 51 51 51 51
8 9 10 11 12 14 15 16 16 17 18 19 21 23 26 29 33 35 38 40 43 44 44 44 44 44 42 40 38 39 41 43 45 46 48 49 50 50 50 50 50 50 49 49
10 11 12 14 15 16 16 16 17 18 19 21 23 25 28 31 34 37 39 42 44 45 45 45 44 43 42 40 39 40 42 44 46 47 48 49 50 49 49 49 48 47 45 44
12 13 15 16 17 16 16 17 17 18 20 22 24 27 29 32 35 38 40 43 45 46 46 45 44 43 42 41 40 41 43 45 46 47 48 50 50 49 48 47 45 42 40 39
14 16 17 17 18 18 17 17 18 19 20 23 25 27 30 33 36 39 42 45 47 47 48 47 46 44 43 41 41 42 44 45 46 47 49 50 49 47 46 44 41 39 35 33
16 16 18 18 18 18 19 18 20 21 22 24 26 28 31 34 36 39 43 45 47 48 48 47 46 45 43 42 41 43 44 46 47 48 49 49 48 46 43 41 38 35 31 29
17 17 17 18 19 20 19 20 21 24 25 27 28 30 32 35 38 40 43 45 48 48 49 48 47 46 44 42 42 43 45 46 47 48 48 48 47 45 42 39 35 32 29 26
17 18 18 18 19 21 20 21 22 24 26 28 29 31 33 36 39 42 44 46 48 49 48 48 47 45 44 43 42 43 44 46 47 47 47 47 46 43 40 37 33 30 27 23
17 18 19 19 20 21 21 22 23 25 27 28 29 31 34 36 40 43 45 47 48 49 49 48 47 46 44 43 43 43 44 45 46 46 46 45 44 42 38 34 31 27 24 20
20 19 20 20 20 21 22 23 24 26 27 28 30 32 34 37 41 43 46 47 48 49 49 48 47 45 44 42 42 43 43 45 45 45 45 44 42 40 37 33 29 26 22 18
22 20 20 20 21 22 22 24 25 26 27 28 30 33 35 39 42 45 47 48 48 49 49 48 47 45 44 42 42 42 43 44 44 44 43 42 41 39 35 32 28 24 21 17
22 22 21 21 21 22 23 24 25 27 28 29 31 34 37 40 43 45 47 48 48 48 48 48 47 45 43 41 41 41 42 43 43 43 42 41 40 38 34 31 27 23 21 17

GEFSCGP_500_meanwind_054.txt.gz
Wind_Speed
3 5 5 5 6 8 8 8 9 10 10 13 17 19 18 18 18 18 18 19 20 20 22 24 25 27 30 32 35 37 39 41 43 45 45 46 46 47 47 46 45 42 41 41
8 10 6 2 4 6 7 10 11 11 14 14 15 18 15 14 14 15 16 17 18 20 21 23 26 28 30 33 35 37 39 40 42 43 44 45 45 46 46 46 45 44 42 42
13 9 7 5 6 7 9 11 12 13 14 14 15 17 14 11 11 12 14 17 18 20 21 23 25 27 29 31 33 35 36 38 40 42 43 45 46 46 46 46 46 45 44 44
9 8 7 7 8 8 11 11 11 11 13 17 18 20 17 14 9 11 15 18 20 21 22 24 26 27 29 31 33 35 36 38 40 42 44 45 46 46 46 47 47 47 47 46
4 5 6 6 6 8 9 8 10 13 17 21 22 22 16 11 7 14 18 20 22 23 24 25 27 28 30 33 35 37 37 38 40 42 44 44 45 46 47 47 47 46 46 45
4 6 6 5 5 6 8 9 13 16 19 19 16 14 11 17 18 20 22 23 23 24 25 27 28 30 32 34 36 38 39 39 40 41 43 44 45 45 46 46 46 45 44 44
3 3 4 7 7 8 7 10 15 20 23 17 13 9 12 19 21 23 25 25 25 26 27 29 30 32 34 36 37 38 40 40 40 41 42 43 44 44 43 43 43 42 41 41
10 8 8 9 9 8 7 9 13 17 21 19 14 9 15 19 21 22 24 24 25 27 28 30 32 34 36 38 39 40 40 40 41 41 42 42 41 41 40 41 41 40 39 39
8 10 11 11 9 8 7 7 9 9 11 14 18 18 17 19 21 22 23 24 26 28 30 32 34 36 38 39 40 41 41 41 41 41 40 40 39 39 39 39 39 39 40 40
8 7 7 11 9 9 10 9 9 6 7 7 13 19 20 22 22 23 24 25 27 30 32 34 36 38 40 40 41 41 41 41 41 40 39 38 38 38 39 39 39 40 41 43
8 6 5 6 9 10 10 10 10 8 7 5 9 21 21 22 23 23 25 27 29 31 33 35 37 39 41 41 42 42 42 41 40 40 39 38 38 39 39 40 41 42 43 44
7 5 5 7 9 7 9 11 11 10 10 8 9 21 22 22 23 25 27 28 30 32 34 36 39 41 41 42 42 42 41 41 41 40 39 39 39 40 41 42 43 44 45 46
8 6 6 12 13 8 10 13 12 11 10 8 9 20 25 26 26 27 29 30 32 34 36 38 40 41 42 42 42 42 42 42 42 41 40 40 41 42 43 43 45 45 46 47
8 8 6 9 11 11 11 13 15 13 11 12 15 19 24 26 26 27 29 31 33 35 37 39 41 42 43 43 43 43 42 43 42 42 41 42 42 43 43 44 45 46 47 49
8 8 9 8 10 12 13 14 15 15 15 15 18 21 25 26 27 28 30 32 34 36 39 41 42 44 44 44 44 44 44 43 43 43 42 43 43 43 44 45 46 47 47 47
11 10 10 9 10 12 13 15 17 17 18 19 21 24 26 27 28 29 30 32 35 37 39 42 44 45 45 45 45 45 44 44 43 43 43 43 43 44 45 46 46 46 46 46
14 13 12 9 10 11 15 16 19 20 21 22 24 26 27 27 29 29 30 32 35 38 41 44 45 46 46 46 46 45 45 44 43 43 43 44 44 44 45 45 46 46 45 45
14 14 14 12 10 13 16 19 20 23 24 24 25 27 28 29 31 31 31 34 37 40 43 45 46 46 47 47 46 46 45 44 44 43 43 44 44 44 44 45 46 45 44 43
17 16 15 14 12 13 18 22 20 23 25 23 24 25 27 28 31 34 34 37 40 42 44 46 47 47 47 47 47 46 45 45 44 44 44 44 44 44 44 45 45 44 42 40
19 19 17 16 15 14 18 22 21 24 28 24 26 27 28 29 30 33 36 38 40 42 45 46 46 48 48 48 47 46 45 45 44 44 44 44 44 44 44 44 44 42 40 37
22 21 19 19 18 18 23 23 24 26 27 28 29 29 29 30 31 33 35 38 41 43 45 46 47 48 49 48 47 46 45 45 45 44 44 44 44 44 43 43 43 40 38 36
19 19 20 21 20 22 26 27 27 26 26 27 28 28 29 30 32 34 37 39 41 43 45 46 46 48 48 48 47 46 45 45 44 44 44 44 43 43 43 43 41 38 37 34
19 21 21 21 23 27 28 28 28 27 27 27 27 28 29 31 33 35 38 40 42 44 44 45 46 47 48 48 48 46 45 45 44 43 44 43 43 43 43 41 39 37 35 33
21 27 26 24 23 26 28 28 28 27 27 27 27 29 30 32 34 36 39 41 42 44 44 44 45 46 47 48 47 46 45 44 44 43 43 43 42 42 42 40 39 37 34 32
21 26 28 28 27 27 26 27 27 27 27 27 28 30 31 33 35 38 40 42 42 43 43 43 44 46 47 47 47 46 45 44 43 42 42 42 42 42 41 39 38 37 33 30
23 25 27 27 27 28 27 27 27 27 27 28 29 31 33 35 37 38 40 41 42 42 42 43 44 45 46 47 47 46 44 43 42 41 41 41 41 40 40 38 36 35 32 28

GEFSCGP_500_meanwind_060.txt.gz
Wind_Speed
3 1 0 1 3 5 6 8 9 9 12 17 19 21 22 21 19 16 14 13 14 14 15 17 19 21 23 24 25 27 29 30 32 34 35 37 38 40 40 41 41 41 42 41
5 5 2 1 3 5 6 7 8 7 7 11 15 19 18 19 16 13 12 11 11 11 13 15 18 19 21 22 24 26 28 30 32 34 36 37 39 40 41 41 42 42 42 41
7 6 2 1 3 4 7 9 9 9 10 12 14 16 16 17 14 10 9 9 8 10 12 14 16 18 19 21 23 25 27 30 32 34 36 37 39 40 40 41 41 41 41 41
8 6 4 4 5 5 8 10 10 11 13 15 17 15 13 11 5 5 5 5 5 7 10 12 15 17 19 20 22 24 26 29 31 33 35 37 38 38 39 39 39 39 39 39
8 7 5 5 6 7 8 9 9 10 12 14 14 13 10 7 5 2 1 2 5 8 10 12 14 17 18 20 22 24 25 27 29 30 32 34 36 37 38 38 39 39 38 38
7 7 7 7 7 8 8 7 8 10 11 13 14 12 10 8 7 7 6 7 9 11 12 15 17 19 21 22 25 26 27 28 29 31 32 33 34 35 36 37 37 37 37 37
6 6 7 7 6 6 7 7 7 8 10 12 13 12 12 10 8 8 9 11 13 15 17 19 21 23 25 27 29 30 32 32 33 33 34 35 35 35 35 36 37 37 37 37
5 5 5 6 6 6 6 7 8 8 9 9 10 10 11 12 10 9 12 14 16 19 21 23 26 28 30 31 33 34 35 35 35 35 36 36 36 36 36 37 37 38 37 37
6 5 5 5 6 6 6 8 9 9 9 9 9 9 11 12 11 12 15 17 20 22 25 27 29 31 33 34 36 37 37 37 37 37 37 37 37 38 38 38 39 38 38 38
8 7 6 7 7 8 8 9 9 8 9 10 10 11 13 14 15 16 18 21 23 25 27 29 31 33 35 36 38 39 39 39 39 38 38 38 38 39 39 39 39 39 39 39
7 6 6 7 8 8 8 9 10 10 11 12 14 15 15 16 17 19 21 24 26 27 29 30 32 34 36 38 39 40 40 40 39 39 39 39 39 39 39 39 39 39 39 39
6 6 7 7 7 7 8 9 10 11 12 14 16 17 18 19 20 22 24 26 27 28 29 31 33 35 37 39 40 40 40 40 40 40 40 40 40 40 40 39 39 39 39 39
7 8 8 8 8 7 8 10 11 12 14 16 18 19 20 21 23 24 25 26 27 28 29 32 34 36 38 39 40 40 40 41 41 40 40 40 40 40 40 40 39 40 39 39
7 8 8 10 11 10 9 10 12 13 14 16 18 19 20 22 23 24 25 27 28 29 31 34 36 37 38 39 40 40 41 41 41 41 41 41 41 41 40 40 40 40 40 40
6 7 8 10 11 11 11 12 14 15 16 17 18 19 21 22 23 25 26 28 29 31 33 35 36 37 39 40 41 41 41 42 42 42 42 42 42 41 41 41 40 40 39 40
5 6 7 9 11 12 12 13 15 17 18 18 19 22 23 23 24 25 27 28 30 31 34 36 37 39 40 41 41 42 42 43 43 43 43 43 42 42 41 41 40 40 40 40
6 6 7 9 11 11 12 13 14 16 17 19 20 22 23 24 25 25 27 28 30 32 34 37 39 40 40 41 42 42 43 44 44 44 44 43 43 42 41 41 40 40 40 40
7 7 9 11 11 12 11 12 14 16 18 19 20 22 24 25 25 25 27 29 31 33 35 38 39 40 41 41 42 43 43 44 45 45 45 44 43 42 41 41 40 40 40 40
7 8 11 13 13 12 13 13 15 18 19 20 22 24 25 26 26 26 28 30 32 34 36 38 40 40 41 41 42 43 44 45 45 45 45 45 44 42 41 41 41 41 41 40
9 11 13 14 13 12 11 14 17 19 20 21 23 24 25 27 27 28 30 32 34 36 37 39 40 40 41 41 42 43 44 45 46 45 45 45 44 42 41 41 41 41 40 39
13 14 16 16 16 16 16 18 20 22 23 23 23 24 25 26 27 29 30 32 34 37 38 39 40 40 41 41 42 43 44 45 46 46 45 45 44 43 42 41 41 41 40 39
19 20 21 21 22 22 22 23 23 23 23 23 23 23 24 26 27 29 31 33 35 37 38 39 40 40 41 41 42 44 44 46 46 47 46 45 44 43 42 41 41 41 40 38
22 24 25 24 24 24 24 25 24 24 23 23 23 23 25 27 29 30 33 35 36 38 39 39 40 40 41 41 42 44 45 46 46 47 46 45 44 42 42 41 40 40 39 37
23 26 27 27 27 26 25 25 25 24 23 23 23 24 26 28 30 32 34 36 38 39 39 39 40 40 41 41 42 44 45 46 46 46 45 44 43 42 41 41 40 40 39 36
21 25 27 27 27 26 25 25 25 25 25 25 25 25 27 30 32 34 36 38 39 39 39 39 39 40 40 41 42 44 45 45 46 46 45 44 43 41 41 40 40 39 38 36
21 25 27 28 27 27 26 27 27 27 27 27 28 28 29 31 34 36 38 39 39 39 39 39 40 40 41 42 43 44 45 46 46 45 45 43 42 41 40 39 39 38 37 35

GEFSCGP_500_meanwind_066.txt.gz
Wind_Speed
9 8 7 6 6 6 7 7 8 10 12 14 16 18 19 20 21 22 22 22 20 18 17 16 15 16 16 17 19 20 21 22 24 25 26 27 29 30 30 31 32 33 33 34
7 6 6 5 4 5 6 6 6 8 9 9 10 13 16 17 19 19 18 18 17 15 14 14 14 16 17 18 19 20 21 23 25 26 28 29 30 31 32 32 32 33 33 34
7 6 5 5 4 5 6 5 5 5 5 7 8 10 12 12 13 12 13 13 13 13 12 13 14 15 17 18 19 21 23 25 27 28 30 31 32 33 33 33 34 34 34 34
6 6 5 5 4 5 5 5 5 5 4 4 5 6 6 6 7 6 6 7 8 9 11 13 14 16 17 19 21 22 24 26 27 28 30 31 32 33 33 34 34 35 34 34
7 6 5 5 5 4 4 4 4 4 3 3 5 7 5 3 1 2 2 4 5 7 9 12 14 16 18 19 21 22 23 25 27 28 29 30 30 31 32 33 33 34 34 34
7 6 5 5 5 5 4 4 4 3 3 3 4 6 7 6 5 2 1 3 5 8 10 12 14 16 18 19 20 22 23 25 26 27 28 28 29 29 30 31 31 32 33 33
7 6 5 5 5 4 5 5 3 2 2 2 3 4 6 5 4 1 2 5 7 9 11 13 15 16 18 19 21 22 24 25 27 27 28 29 29 29 30 30 31 32 33 34
6 6 5 5 5 5 5 6 6 5 4 2 2 3 5 5 4 4 5 7 9 11 12 14 15 16 18 20 22 23 25 27 28 29 29 29 30 30 30 31 31 32 33 34
7 6 5 5 5 5 6 7 7 6 5 4 4 4 5 6 6 6 7 9 10 12 13 14 15 17 19 21 23 25 26 28 29 30 30 31 31 31 31 32 32 33 34 34
8 7 6 6 6 6 7 8 8 7 6 4 3 4 5 7 8 9 10 11 11 13 14 15 17 19 21 24 26 27 29 30 31 31 31 32 32 32 33 33 34 34 35 35
8 7 6 7 7 8 8 9 9 8 7 6 4 5 6 8 9 10 11 12 13 15 16 17 19 22 24 26 28 30 31 31 32 32 33 33 33 34 34 35 35 36 36 36
8 7 7 8 8 8 9 10 9 8 7 7 7 7 8 9 11 12 13 14 15 16 18 20 22 24 26 28 30 31 31 32 33 33 34 34 35 35 36 36 37 37 37 37
9 8 8 8 9 9 10 11 11 9 8 8 10 10 11 12 13 14 15 16 18 19 21 22 23 25 27 29 31 32 32 33 34 34 35 36 36 37 38 38 38 39 39 39
10 10 9 9 10 11 11 12 12 11 10 11 12 13 13 14 15 16 18 19 20 21 22 24 25 26 28 31 32 33 34 34 35 35 36 37 38 39 40 40 40 41 41 40
11 11 11 11 11 11 11 12 12 12 12 12 13 14 15 16 18 19 20 21 21 22 23 24 26 28 30 32 33 34 35 35 36 37 38 39 40 41 41 42 42 42 42 41
12 12 12 12 13 12 11 12 12 12 12 12 14 16 17 18 20 21 21 21 21 22 24 25 27 29 32 33 34 35 35 36 37 38 39 40 41 42 43 43 43 43 43 42
12 12 13 12 13 12 12 11 11 11 12 14 16 18 19 20 21 21 21 21 22 23 25 27 29 31 33 34 35 36 36 37 38 39 40 41 42 43 44 44 44 44 44 43
12 12 12 11 11 11 10 10 10 11 13 15 17 19 21 21 22 22 21 22 23 24 26 29 31 33 34 35 36 36 37 38 39 40 42 43 43 44 45 45 45 45 44 44
13 13 12 11 10 9 9 9 10 12 14 16 18 20 21 21 22 22 22 23 24 26 28 30 32 34 35 36 36 37 38 39 40 42 43 44 44 45 45 45 45 45 45 44
13 13 13 13 12 10 10 11 12 14 15 17 19 21 21 21 22 22 23 24 25 27 29 31 33 34 35 36 36 37 39 40 41 43 43 44 45 46 46 46 46 45 45 44
16 16 15 15 15 12 13 13 14 16 18 19 20 21 22 22 23 24 24 25 27 28 30 32 34 35 35 36 37 38 39 41 42 43 45 45 46 46 46 46 46 46 45 44
18 18 18 17 16 16 16 16 17 19 19 21 22 23 23 24 25 25 26 27 29 30 32 33 34 35 35 36 37 39 40 42 43 44 45 46 46 47 47 46 46 45 45 43
21 21 20 19 19 19 19 20 20 21 22 22 23 24 25 26 26 27 28 30 31 32 33 35 35 36 36 37 39 40 42 43 44 45 46 46 47 47 47 46 45 45 44 42
23 24 24 24 23 23 23 23 23 24 24 25 26 26 27 28 28 29 30 32 33 34 35 36 36 36 37 39 41 43 44 45 45 46 47 47 48 47 47 46 45 44 43 42
23 26 27 27 26 26 25 25 26 26 27 27 27 28 28 29 30 31 32 34 35 35 36 36 37 37 38 40 42 44 46 46 47 47 48 48 48 46 46 46 45 44 42 41
25 28 29 29 28 28 27 27 28 28 29 29 29 29 30 31 32 33 34 35 35 36 36 37 37 39 40 41 43 45 47 47 48 48 48 48 47 46 46 45 44 43 42 40

GEFSCGP_500_meanwind_072.txt.gz
Wind_Speed
11 11 11 9 9 8 6 6 8 9 9 10 11 13 14 15 17 19 19 19 19 17 17 16 14 13 13 12 12 13 14 14 15 16 17 18 19 20 22 22 23 23 24 24
10 10 10 9 8 8 7 8 9 9 8 9 10 10 11 12 14 16 16 16 16 15 14 13 12 12 11 11 11 12 13 14 15 17 18 20 21 22 23 23 23 24 24 24
8 8 9 8 8 7 7 7 8 8 8 8 9 9 9 8 8 8 10 10 10 10 10 9 9 9 9 10 12 13 15 16 17 19 20 21 22 23 23 24 24 24 24 24
7 8 8 8 8 7 7 7 7 7 8 8 9 10 9 6 4 4 4 4 5 6 5 6 7 8 9 11 13 15 16 18 20 21 22 22 23 23 24 24 24 24 24 24
7 8 8 8 8 7 6 6 7 6 6 7 8 9 8 6 3 1 2 2 2 3 5 6 8 9 11 13 15 17 18 19 20 21 22 22 23 23 24 24 24 24 24 24
8 8 7 7 7 6 6 6 6 6 7 7 7 8 8 7 5 3 2 2 3 4 6 8 10 11 13 15 16 18 19 20 20 21 21 22 23 23 23 23 23 24 24 25
9 8 7 7 7 6 6 5 6 7 8 8 7 6 7 7 6 5 5 5 5 7 8 10 12 13 14 16 17 19 20 20 21 21 21 22 22 23 23 23 24 24 25 25
7 8 9 7 7 7 6 4 3 3 5 7 8 7 8 7 7 7 7 7 7 9 10 12 13 14 15 17 18 19 20 20 21 21 22 22 22 23 23 23 24 24 25 26
7 9 9 8 8 7 6 4 4 5 6 7 8 9 9 8 8 8 8 8 9 10 12 13 15 15 16 17 18 19 20 20 21 21 21 22 22 22 22 23 24 25 26 27
9 9 10 9 9 9 7 7 6 4 4 5 8 9 10 10 9 9 9 10 11 12 13 15 16 17 17 18 18 19 20 20 21 21 21 22 22 23 23 24 26 26 27 28
9 9 10 10 10 10 9 9 8 6 6 4 6 10 11 10 10 10 10 11 12 13 14 15 16 16 17 17 18 19 20 20 21 21 22 23 23 24 25 27 28 29 30 31
9 8 9 11 11 11 10 9 8 7 9 8 7 11 12 12 11 11 11 12 13 14 15 15 16 16 17 17 18 19 20 21 21 22 23 24 25 26 28 29 30 31 32 33
10 9 7 9 11 12 11 10 10 10 10 10 8 12 14 12 11 11 12 13 14 14 15 15 15 16 17 18 19 20 21 21 22 23 24 25 27 28 30 31 32 33 34 35
12 11 9 9 11 13 12 12 12 12 11 12 12 13 14 13 12 12 13 13 14 14 15 15 15 16 17 19 20 21 22 22 23 24 25 27 29 31 32 33 34 35 37 37
14 13 13 13 13 13 13 13 14 13 13 13 13 14 14 14 13 13 14 14 14 14 14 15 16 17 18 20 21 22 23 24 25 26 27 29 31 33 34 35 37 38 39 40
16 15 15 14 14 14 13 13 14 13 13 14 14 14 14 14 14 14 14 14 14 14 15 16 17 18 20 21 22 23 24 25 26 27 29 31 33 35 36 37 39 40 41 41
17 16 15 14 15 15 12 13 13 13 13 13 13 15 15 15 15 15 15 15 15 15 16 17 18 20 21 22 23 24 25 26 27 29 31 33 35 36 38 39 40 41 42 43
16 16 15 14 14 13 12 13 12 11 13 13 14 15 16 16 16 16 15 15 16 16 17 18 20 21 22 24 25 25 26 27 29 30 32 34 36 38 39 41 42 43 44 44
16 16 15 14 14 13 13 14 13 13 13 15 15 17 17 17 17 17 16 16 17 17 18 20 21 23 24 25 26 26 27 28 30 31 33 35 37 39 41 43 44 45 45 44
18 17 16 15 15 14 15 17 15 15 15 18 18 19 19 18 18 18 18 17 18 19 20 22 23 25 26 27 27 27 28 29 31 33 35 37 39 41 42 44 45 45 45 44
20 19 19 18 17 15 20 18 17 17 19 21 21 21 20 20 19 20 20 20 20 21 22 24 25 27 27 28 29 29 30 30 32 34 37 39 41 43 44 46 46 46 45 44
21 22 22 21 19 20 23 20 20 21 22 22 22 22 22 22 22 22 22 23 24 24 25 26 28 29 29 29 30 31 31 33 35 37 39 41 43 45 46 47 47 46 45 44
24 25 25 24 24 26 24 23 23 23 23 24 24 24 24 24 24 25 25 26 27 28 28 29 30 31 31 32 32 33 34 35 37 39 41 43 45 46 47 48 47 46 44 43
27 26 26 26 27 26 26 25 25 25 25 26 26 27 27 27 28 28 28 29 30 31 32 32 33 34 34 34 34 35 36 37 39 42 44 45 47 47 48 48 47 46 44 42
27 26 26 26 27 27 28 27 27 27 27 28 29 29 30 30 30 31 31 32 33 34 34 35 36 37 37 38 38 38 38 40 43 45 46 47 48 49 48 48 47 46 44 42
26 27 27 28 28 28 29 29 29 30 30 31 31 32 32 33 33 33 34 34 35 36 37 38 40 40 40 42 42 41 42 43 45 47 48 49 50 49 48 48 46 45 43 41

GEFSCGP_500_meanwind_078.txt.gz
Wind_Speed
9 10 10 11 11 11 11 14 15 14 11 12 13 16 16 10 7 13 14 15 15 15 14 14 14 14 15 13 13 13 13 13 14 14 15 15 16 17 18 19 20 21 21 21
12 12 12 12 11 10 10 11 13 13 12 11 12 12 12 9 7 9 10 9 10 12 12 13 13 13 12 12 12 11 11 13 14 14 15 15 16 17 17 19 19 20 20 20
10 12 13 12 11 11 12 11 10 11 12 11 11 11 12 11 8 6 6 6 7 8 8 8 9 9 9 10 9 10 10 11 12 14 15 15 17 18 18 19 19 19 20 20
10 10 14 12 11 12 12 11 9 8 10 11 12 13 11 11 7 5 3 3 4 5 4 5 6 6 7 8 8 8 10 11 13 14 15 17 17 18 19 19 19 20 20 20
10 12 13 13 13 12 10 8 6 7 10 10 9 12 12 12 7 4 2 0 1 2 2 3 3 4 5 6 7 9 10 12 13 15 16 18 19 19 20 20 20 21 21 21
10 11 11 12 12 10 8 8 9 10 10 6 9 11 12 13 9 5 4 2 1 2 2 3 4 5 6 7 9 10 11 13 15 16 18 19 20 20 21 21 21 22 22 22
15 13 12 10 10 10 9 9 14 16 15 10 10 9 12 13 11 8 5 4 2 2 2 3 5 6 8 10 11 12 13 14 16 18 19 19 20 20 21 22 22 23 23 23
16 19 14 9 10 12 9 8 11 13 14 11 7 9 12 11 11 8 6 4 4 4 4 5 7 9 10 12 13 14 15 16 17 18 19 20 20 20 21 22 23 23 24 25
15 15 14 12 11 11 9 7 7 8 11 10 4 8 10 10 11 10 8 7 6 7 7 8 9 11 12 14 14 15 16 17 18 19 20 20 21 22 22 23 24 24 25 26
14 13 13 14 12 10 9 8 7 5 7 10 8 9 12 14 15 13 11 10 10 10 10 11 12 13 14 15 15 16 17 18 19 20 20 20 21 22 23 24 25 26 27 28
13 14 11 13 12 9 11 8 8 8 7 10 13 10 12 16 18 17 14 13 12 12 13 13 14 15 15 15 15 16 17 19 20 20 21 21 22 22 23 24 26 27 28 29
15 14 13 15 15 12 10 10 10 10 9 8 10 14 15 16 18 19 18 16 15 15 15 15 15 16 16 16 16 17 18 19 19 20 21 22 22 23 24 26 27 28 29 30
16 15 14 15 18 15 9 7 7 10 10 10 11 16 19 17 18 18 17 17 17 16 17 18 17 16 16 16 17 17 18 19 20 20 21 22 22 24 25 27 28 29 30 31
16 16 15 16 15 12 7 4 7 11 12 13 14 15 17 18 19 19 17 18 18 17 18 18 17 17 16 17 17 18 19 20 20 21 22 23 23 25 26 28 29 30 32 33
16 16 15 15 13 12 11 10 11 14 15 15 16 15 17 19 20 21 20 20 20 19 18 18 17 17 17 17 18 19 20 21 21 22 23 24 25 26 27 29 30 32 33 35
17 16 16 15 13 15 14 13 14 15 15 15 15 16 19 22 21 21 21 21 21 20 19 18 18 18 18 18 19 20 21 22 23 24 25 26 26 28 29 30 32 34 35 37
18 18 17 15 14 16 15 14 15 16 16 15 15 17 20 22 22 21 20 20 21 20 19 19 19 19 19 20 21 22 23 24 25 25 27 28 29 30 31 33 34 36 38 39
19 18 18 17 16 16 13 14 15 15 15 16 17 19 20 21 21 21 20 20 20 20 20 20 20 20 21 21 22 23 24 25 26 27 29 30 31 32 33 35 36 38 39 41
20 19 18 17 17 15 15 18 18 16 16 16 16 18 19 20 21 22 21 20 20 20 21 21 22 22 22 23 24 25 26 27 28 30 31 33 34 35 36 37 39 40 41 42
20 19 18 18 17 17 21 22 21 20 20 17 17 19 20 19 21 23 23 22 22 22 22 23 23 24 24 25 26 27 28 29 30 32 34 36 37 38 38 39 40 41 43 44
22 19 19 18 18 19 24 24 22 21 23 18 17 19 19 21 23 25 24 25 25 24 24 25 25 26 26 27 28 29 30 32 33 35 37 38 40 41 40 41 42 43 44 45
20 19 22 22 23 24 27 27 27 25 22 18 20 22 23 26 26 27 28 28 27 26 26 27 27 27 28 29 31 32 33 35 36 38 39 41 42 44 43 44 44 45 46 47
22 21 22 27 28 28 30 28 26 23 22 23 25 25 27 28 28 30 30 30 30 29 29 29 30 30 31 32 33 35 37 38 39 40 42 43 44 45 46 47 47 47 48 49
27 25 25 29 31 30 28 28 28 28 28 29 29 30 30 31 31 32 32 32 33 32 32 32 33 34 34 35 37 38 39 40 41 43 44 45 46 46 47 48 49 49 51 51
29 30 30 32 33 32 30 30 31 31 30 31 31 32 33 33 33 33 34 34 35 35 35 36 37 38 39 39 40 42 43 44 44 46 47 47 48 48 49 49 50 52 51 49
32 32 32 33 33 34 34 32 32 33 32 32 33 33 34 34 35 35 35 36 37 38 38 39 40 41 42 42 43 44 45 46 47 48 49 49 50 51 51 52 52 52 51 50

GEFSCGP_500_meanwind_084.txt.gz
Wind_Speed
6 5 6 9 11 13 15 16 17 15 15 14 14 14 14 14 10 4 1 3 6 7 9 9 8 8 7 7 6 6 6 6 6 7 8 8 9 9 9 10 10 11 11 11
7 6 7 9 11 12 15 16 15 14 14 14 14 14 13 12 8 6 2 3 4 5 8 9 8 7 7 6 4 4 5 5 6 7 8 8 8 9 9 9 10 11 11 11
8 7 8 10 11 12 14 15 15 15 15 14 13 12 12 10 6 4 3 3 5 6 7 7 6 5 5 4 3 3 3 4 5 6 7 7 7 8 8 8 9 10 11 12
7 7 9 11 12 12 13 13 12 12 13 14 12 11 10 10 8 4 3 4 6 7 7 6 5 4 2 2 1 2 2 3 4 5 6 6 7 7 8 8 9 10 11 12
7 8 9 11 12 13 11 11 9 9 11 10 9 9 9 9 9 6 5 6 6 7 6 6 4 3 2 1 1 1 2 3 4 5 6 6 7 7 7 8 9 10 11 12
7 9 11 12 12 12 10 8 8 8 8 9 7 8 8 8 9 7 7 6 7 6 6 5 4 3 2 0 1 1 2 3 4 5 5 6 7 8 8 9 10 11 12 13
10 11 12 12 10 10 10 9 9 8 9 9 7 5 6 6 7 7 7 6 5 4 5 4 3 2 1 1 2 2 3 4 4 5 6 7 7 8 9 10 11 12 13 14
14 11 11 10 9 10 9 9 10 10 10 10 8 3 4 5 5 6 6 5 4 3 3 2 1 0 1 2 2 3 3 4 4 5 6 7 8 9 10 11 12 13 14 15
16 12 11 11 10 9 8 9 10 10 10 9 6 4 3 2 3 4 5 3 2 2 2 0 1 2 2 2 3 3 4 4 5 6 7 8 9 10 11 12 13 14 16 17
16 14 12 11 11 10 11 11 11 12 12 10 10 7 6 3 2 2 3 3 1 1 1 1 2 2 3 3 3 3 4 4 5 6 8 9 10 11 12 13 14 16 17 18
16 16 15 14 13 13 14 15 14 14 14 13 11 10 8 7 6 4 4 3 1 1 1 2 2 3 3 4 4 4 5 5 6 7 9 10 11 13 14 15 16 17 18 20
17 17 16 15 15 15 16 16 16 16 15 14 14 12 11 10 9 7 5 4 3 2 2 3 3 3 4 5 5 6 6 7 8 9 11 12 13 14 15 16 17 19 20 22
17 17 17 16 15 16 17 16 16 17 16 15 15 14 13 12 11 9 8 6 5 4 3 3 4 5 5 6 7 8 8 9 11 12 13 14 15 16 17 18 19 21 23 25
19 19 19 18 16 17 16 16 17 16 15 16 15 14 15 14 13 12 10 8 7 6 5 5 6 7 7 7 8 9 10 11 13 14 15 15 16 17 19 20 22 23 25 27
19 20 20 19 18 18 17 16 17 17 17 17 16 16 16 15 14 13 12 10 8 8 7 7 8 8 9 10 11 12 12 13 14 16 17 17 19 20 21 22 24 25 27 28
21 21 20 19 19 20 19 18 18 19 19 20 20 19 17 15 14 14 14 12 11 10 10 10 10 11 11 12 13 14 15 16 17 18 19 20 21 22 23 25 26 28 30 31
21 22 22 20 19 21 20 18 20 21 21 22 23 21 20 18 16 15 15 15 14 13 12 12 13 13 14 15 16 16 17 18 19 20 21 22 23 24 25 27 28 30 31 32
21 21 21 19 18 20 16 19 20 21 22 24 24 22 21 19 18 17 16 16 15 15 14 14 15 16 17 18 18 19 20 21 22 23 23 24 25 26 27 29 30 32 33 34
21 20 19 19 19 18 18 19 21 22 23 25 26 25 23 21 21 21 19 17 16 17 17 17 17 17 18 19 20 21 22 23 24 25 26 26 28 29 30 32 33 34 35 37
21 21 20 20 21 20 20 21 20 23 24 24 25 26 25 24 24 24 22 20 18 17 17 18 19 20 21 22 22 23 24 25 27 28 29 30 31 32 33 34 35 36 38 39
21 22 22 22 22 21 20 21 21 23 24 24 24 25 24 25 25 25 23 21 19 19 19 20 21 22 22 24 25 26 27 28 29 30 31 33 34 35 36 36 37 38 39 41
22 23 23 23 24 22 22 21 21 22 23 23 24 25 26 25 24 25 24 22 21 22 22 23 24 24 25 26 28 29 30 31 32 33 35 36 36 37 38 39 40 40 41 42
22 23 24 23 22 20 19 20 21 22 20 20 21 23 24 25 24 22 22 23 23 24 26 26 28 29 29 30 31 32 33 34 35 36 38 39 39 40 40 42 42 43 43 43
24 25 24 24 23 23 20 20 20 20 21 21 20 20 22 21 20 20 22 25 27 27 29 30 32 32 32 33 34 35 36 37 38 39 40 41 41 42 43 44 45 45 45 46
27 27 27 27 25 24 22 22 21 20 21 21 21 21 21 22 22 23 24 25 27 29 31 32 33 34 35 35 36 37 38 39 40 41 42 43 44 45 45 46 47 47 47 48
27 27 27 26 27 26 25 24 22 21 22 22 22 22 22 22 23 25 26 27 29 31 32 34 35 36 37 38 39 40 41 42 43 44 45 46 46 47 48 49 49 49 49 49

GEFSCGP_500_meanwind_090.txt.gz
Wind_Speed
7 7 7 9 10 10 9 10 11 12 13 14 14 15 14 13 12 7 5 5 7 8 10 12 13 13 13 12 11 10 9 7 6 5 5 5 6 6 6 7 6 7 7 7
9 8 10 11 11 11 10 10 11 12 13 13 14 14 13 13 10 7 3 3 7 9 12 12 12 13 12 12 11 10 8 7 6 5 4 5 5 6 6 6 6 6 6 7
11 10 10 10 10 10 10 11 11 12 12 13 13 13 13 12 10 6 2 2 6 9 11 12 12 12 12 11 11 9 8 7 6 5 4 4 5 5 5 5 5 5 6 6
11 10 9 9 10 11 11 12 12 11 11 11 12 13 13 11 9 6 2 3 6 8 10 11 11 11 11 11 10 9 8 6 5 4 4 4 4 3 3 3 4 5 5 6
11 9 8 9 10 12 12 13 12 12 11 11 11 12 12 10 8 5 2 4 7 8 10 11 11 11 11 10 9 8 7 6 5 4 4 4 3 2 2 3 4 4 5 6
12 10 9 10 11 12 12 13 12 11 11 10 10 11 11 10 7 4 1 3 5 7 8 9 10 10 9 8 8 8 7 6 5 5 4 4 3 2 2 3 3 4 5 5
12 11 11 11 13 13 12 13 12 10 9 8 9 8 8 8 6 3 0 2 4 5 6 7 8 8 8 8 7 7 7 7 6 6 5 4 3 3 3 3 3 4 5 6
13 12 13 13 14 14 13 13 11 10 8 8 8 7 7 7 6 4 3 2 3 4 5 6 7 7 7 8 8 8 8 7 7 6 6 5 4 4 4 4 4 4 5 6
15 13 14 14 14 14 14 13 12 11 9 8 8 8 7 6 6 5 5 4 4 4 5 6 7 7 8 8 8 8 8 8 8 7 7 6 5 5 5 5 6 6 7 8
17 16 14 15 16 15 14 13 13 13 12 10 9 9 8 7 7 7 7 6 6 6 7 7 8 9 9 9 9 9 9 9 9 8 8 8 7 7 7 7 8 8 9 10
19 18 16 16 16 15 15 14 14 15 15 14 12 9 10 9 8 8 8 8 8 8 9 9 9 9 10 10 10 10 10 10 10 10 10 9 9 9 9 9 9 10 11 13
18 18 16 15 15 15 16 15 16 17 17 16 14 9 11 11 10 10 10 9 10 10 10 11 11 11 11 11 11 12 12 12 12 12 12 11 11 11 11 11 12 13 14 15
18 16 15 15 15 16 17 17 18 18 18 17 16 12 12 12 12 11 11 11 11 11 11 12 13 13 13 13 14 14 14 14 14 14 14 13 13 13 13 14 15 16 17 18
16 15 15 16 17 17 18 18 19 19 19 19 17 14 13 13 13 12 12 13 13 13 13 14 14 15 15 15 15 15 15 16 16 16 16 16 16 16 16 17 18 19 20 21
16 15 16 18 18 19 19 20 21 21 20 19 17 16 14 15 14 14 14 14 14 15 15 15 16 16 16 16 17 17 17 17 18 18 18 18 18 19 19 20 21 22 23 24
16 16 17 18 19 19 20 20 22 22 21 20 18 17 17 18 17 17 17 16 16 16 16 17 17 17 17 18 18 19 19 20 20 19 20 20 21 21 22 23 24 25 26 28
16 17 17 18 19 20 20 19 20 20 20 20 19 18 18 19 19 20 20 19 18 18 18 18 18 18 19 19 20 20 21 22 21 21 22 22 23 24 25 26 27 28 30 31
16 16 17 17 18 20 19 20 21 21 21 21 20 20 19 20 20 21 22 22 21 20 20 20 20 20 21 21 22 23 22 23 23 23 24 25 26 27 28 29 30 31 32 33
17 17 17 17 18 19 19 20 21 22 21 21 21 21 22 22 22 22 22 23 23 23 24 24 24 23 23 23 24 25 24 24 25 26 27 27 28 29 30 32 33 34 35 35
17 18 18 18 19 18 17 19 20 21 21 21 22 22 22 22 23 23 23 24 26 27 27 27 27 25 25 26 26 25 25 26 27 28 29 30 30 32 33 34 35 36 37 38
18 18 18 18 18 18 18 20 21 22 22 22 22 23 22 23 23 23 23 25 28 29 30 29 28 27 28 28 27 27 28 28 29 30 30 32 33 34 36 37 38 39 40 40
19 19 19 19 18 18 19 20 21 22 22 22 23 23 24 23 24 24 24 26 28 28 29 29 30 29 30 30 30 29 30 30 31 32 32 34 35 37 38 40 41 41 42 43
19 19 19 19 19 19 19 20 21 21 21 22 23 23 24 24 24 24 25 26 27 28 29 29 29 29 30 31 31 32 32 32 33 34 36 37 38 40 42 43 43 44 45 46
20 20 20 20 20 20 20 20 19 19 21 22 23 23 24 24 24 24 24 25 25 26 27 27 28 30 31 32 33 33 34 34 35 36 38 40 41 43 45 45 46 48 48 49
22 21 21 21 21 21 21 21 21 20 20 21 22 23 22 23 24 24 24 25 26 27 27 27 28 29 31 32 34 36 36 36 38 40 41 43 44 45 47 48 49 50 51 52
22 22 22 22 22 23 22 22 21 21 21 21 21 22 22 22 23 24 24 24 26 27 28 28 29 31 32 33 34 36 38 39 41 42 44 45 47 48 49 50 51 52 53 54

GEFSCGP_500_meanwind_096.txt.gz
Wind_Speed
10 8 8 8 9 10 11 12 13 15 16 15 15 15 17 16 15 14 11 9 7 9 11 15 18 19 20 21 21 20 18 16 15 13 11 10 8 7 5 4 4 4 3 3
10 9 9 10 10 11 12 13 14 15 14 14 14 15 16 16 15 13 10 8 5 6 8 12 15 16 17 19 19 19 17 16 14 12 11 9 8 7 5 4 4 3 3 2
10 10 10 10 10 11 12 13 13 15 15 14 14 14 15 15 13 12 10 6 4 3 6 10 12 15 16 17 17 17 16 15 13 11 10 9 8 7 6 5 4 4 3 2
12 11 11 10 10 11 11 12 13 14 14 15 14 12 13 13 13 11 8 4 2 3 6 9 11 14 14 14 15 15 15 15 13 11 10 9 8 7 6 6 5 4 3 2
13 13 12 11 11 12 11 12 12 13 12 12 12 11 12 11 11 10 7 3 1 2 5 8 10 12 13 13 14 15 15 14 13 12 11 9 8 7 7 6 6 5 4 3
14 14 13 12 12 12 12 13 12 12 11 10 11 9 10 10 9 8 5 3 0 2 5 7 9 10 11 12 13 13 14 13 12 11 11 10 9 8 8 7 6 5 4 4
14 15 14 13 14 13 12 12 11 11 10 10 11 9 9 9 8 7 5 3 2 1 4 6 8 9 10 11 11 12 12 12 11 11 10 10 9 9 8 7 7 6 5 4
16 15 16 15 15 14 13 12 10 10 10 10 11 9 9 8 8 6 5 3 2 0 2 5 7 8 9 9 10 12 12 12 11 11 11 11 10 10 9 8 8 7 6 6
17 17 19 18 16 16 15 14 12 11 11 9 10 10 10 9 8 6 5 3 2 2 3 4 6 8 9 9 10 11 12 12 11 11 12 12 11 11 10 9 9 9 9 9
19 19 20 20 19 18 18 17 15 11 10 9 10 10 10 10 9 7 6 5 4 4 4 5 7 8 9 9 10 11 12 12 12 12 12 12 12 11 11 11 11 11 11 12
19 19 20 21 20 20 19 18 16 14 12 10 10 11 13 11 10 9 8 7 6 5 5 6 7 8 9 9 10 11 12 12 13 13 13 13 13 13 13 13 13 14 14 14
20 20 21 22 21 20 19 18 16 15 14 12 10 11 14 12 11 10 10 9 9 8 8 7 8 9 9 10 11 12 13 13 14 14 15 15 15 15 16 16 16 17 17 17
22 22 21 22 22 21 20 19 18 16 15 13 11 11 15 13 12 11 11 11 10 11 10 10 10 10 11 11 12 13 14 14 15 16 17 17 18 18 19 19 19 20 20 21
23 23 21 21 21 21 20 19 18 16 16 15 14 14 16 15 15 14 13 12 12 12 12 12 11 12 13 13 14 15 15 16 17 18 18 19 20 21 22 22 23 23 24 24
23 22 22 22 22 22 20 18 18 18 17 17 16 16 17 17 17 16 15 15 14 14 14 14 14 15 15 16 16 17 18 18 19 20 21 22 23 24 25 25 26 27 27 28
24 23 22 22 21 20 19 19 19 18 18 18 17 18 19 18 19 18 18 17 17 17 17 17 17 18 18 18 19 19 20 21 22 23 24 25 26 26 27 28 29 29 30 31
24 22 21 21 20 19 18 19 19 20 19 19 19 20 19 19 19 20 20 20 20 20 20 20 20 21 21 21 22 22 23 23 24 25 26 28 29 29 30 30 31 32 32 32
23 22 21 20 19 18 18 18 18 19 20 20 20 20 20 21 20 20 21 21 22 22 23 24 24 24 24 24 25 25 25 26 27 28 29 30 31 32 33 34 34 34 34 34
23 22 22 20 19 19 19 18 19 20 21 21 21 21 21 21 22 22 22 22 23 24 25 26 27 26 27 27 27 27 28 29 29 30 32 32 33 34 35 36 35 36 35 34
21 21 21 20 20 19 21 19 19 20 20 20 21 21 21 22 23 24 24 24 25 26 26 27 29 30 30 30 30 31 32 32 33 34 34 35 35 36 36 36 36 37 36 36
20 20 20 20 19 20 20 19 19 19 19 20 21 21 22 23 24 24 25 25 26 27 28 29 31 32 33 34 34 35 35 35 36 36 36 36 37 38 38 38 38 38 38 38
19 18 18 18 18 20 20 20 20 20 20 21 21 22 23 24 24 25 26 27 28 29 30 31 32 34 36 36 36 36 36 37 37 37 38 38 37 38 39 39 39 40 40 40
18 18 19 19 19 20 20 20 20 20 21 22 22 23 23 23 24 25 26 27 28 29 30 31 32 34 36 37 38 38 37 38 38 39 38 39 39 40 41 41 41 42 43 43
19 19 20 20 21 21 21 21 21 22 22 22 23 23 24 24 24 25 26 27 28 29 29 29 31 33 35 36 36 36 37 37 38 39 39 40 41 41 42 43 44 45 45 46
19 20 20 21 22 22 22 22 23 23 23 23 23 23 24 25 25 26 26 26 27 27 28 29 31 32 34 35 36 36 36 36 37 39 40 40 42 42 44 45 45 46 47 48
20 20 21 22 21 22 23 23 23 24 24 24 24 25 24 25 25 26 27 27 27 27 28 29 30 31 32 34 36 37 37 37 38 39 40 41 41 42 43 45 46 48 49 51

GEFSCGP_500_meanwind_102.txt.gz
Wind_Speed
10 8 6 5 6 9 11 11 12 15 16 19 18 17 18 19 19 19 20 19 16 13 11 11 11 12 14 17 17 17 17 17 16 15 13 10 9 7 6 5 4 3 3 2
10 9 7 6 9 11 11 11 13 16 16 17 16 16 17 16 16 18 19 18 14 12 10 9 9 10 12 14 15 17 17 17 15 14 12 9 8 7 5 5 3 3 2 2
11 9 8 9 11 11 11 13 15 16 16 15 16 16 18 15 14 17 17 16 14 11 8 7 7 8 9 11 12 14 14 14 14 13 11 9 8 7 6 5 4 3 3 2
11 10 11 14 14 13 14 14 16 15 13 16 15 18 18 16 15 16 17 15 12 9 6 5 4 4 7 8 10 11 12 12 12 11 10 9 8 7 6 5 5 4 4 3
11 11 15 16 16 15 15 15 14 14 14 15 13 14 15 17 17 17 18 16 12 7 5 3 1 3 5 7 9 9 10 11 11 10 9 9 8 8 7 6 6 5 5 4
15 15 16 16 16 15 15 14 13 15 16 18 12 10 12 14 17 17 17 16 11 7 5 3 1 1 3 6 8 10 10 10 9 9 10 9 9 8 7 7 7 6 6 5
14 16 17 17 17 15 15 16 16 17 19 17 10 8 10 13 15 15 16 14 10 7 5 3 2 2 3 5 8 9 9 9 9 9 9 9 9 8 8 8 8 7 7 7
15 16 15 17 18 16 16 16 17 19 18 18 12 9 11 10 13 14 14 12 9 6 4 3 2 3 4 5 6 8 8 8 9 9 10 10 10 9 9 9 9 9 9 8
16 16 15 17 16 17 17 17 17 20 17 16 15 11 12 9 9 12 13 12 9 7 5 3 3 3 4 6 7 8 9 8 8 9 10 10 10 10 11 11 10 10 10 10
19 20 18 19 16 17 18 17 18 19 17 16 18 19 14 10 8 10 12 12 10 8 6 5 4 4 5 6 7 8 9 9 8 9 10 11 11 11 12 12 12 12 12 12
22 23 21 21 20 19 20 20 19 19 18 18 19 21 17 9 7 9 12 12 10 8 7 6 6 5 6 7 7 8 9 9 9 10 11 11 12 12 13 13 13 13 13 13
27 28 27 24 24 23 22 21 20 20 18 18 17 20 19 15 10 8 11 12 10 9 9 7 6 7 7 7 7 8 9 10 10 11 12 13 13 14 14 15 15 15 16 16
30 31 30 27 26 26 24 23 21 20 18 19 17 20 21 17 12 9 12 13 11 10 10 9 8 8 8 8 8 9 10 11 11 12 13 14 15 15 16 16 17 18 19 19
33 32 32 27 28 28 26 23 21 20 19 18 19 21 23 19 13 12 13 13 13 12 12 11 10 9 9 9 10 11 11 12 13 14 14 15 16 17 17 18 19 20 21 22
33 33 32 29 27 27 23 19 18 18 18 20 21 23 23 22 20 17 16 16 15 15 14 13 13 12 12 13 12 12 13 14 15 16 17 17 18 19 19 20 21 22 23 24
34 35 33 31 28 26 23 21 19 17 19 21 23 25 24 24 21 19 19 19 18 17 17 16 16 16 15 14 15 15 16 17 17 18 19 20 20 20 21 22 23 25 26 27
35 35 33 31 27 27 24 22 21 21 22 22 23 25 26 24 23 21 20 20 20 19 19 19 19 19 18 18 19 19 19 20 20 21 22 23 23 23 24 25 26 27 28 29
34 34 33 30 28 27 25 24 23 22 23 24 25 26 26 24 22 22 21 21 21 21 21 21 21 21 21 21 22 23 23 24 24 25 25 26 27 27 28 28 29 30 31 31
30 31 31 30 30 28 25 25 24 22 23 25 25 25 26 24 24 22 20 21 22 23 23 24 24 24 24 25 25 25 26 27 27 28 28 29 30 31 31 31 31 32 33 34
28 31 28 26 27 27 26 25 24 24 24 24 25 26 26 24 24 21 21 21 23 24 25 25 25 26 27 27 27 28 28 29 30 31 31 32 34 33 34 34 34 35 35 36
23 26 27 27 27 26 26 24 22 24 25 24 23 24 23 23 23 23 22 22 23 23 25 26 27 27 28 29 29 30 31 31 32 34 35 36 36 36 36 36 36 36 36 38
23 24 25 27 29 28 27 25 23 23 23 22 22 22 22 23 24 24 23 24 24 25 25 26 28 28 29 31 31 32 33 34 34 36 37 37 38 39 39 39 38 38 38 40
25 26 26 27 28 27 26 25 23 23 23 22 21 22 23 23 24 24 25 25 26 27 27 28 29 30 30 31 33 34 34 34 35 36 38 38 38 39 39 39 40 40 40 40
20 23 24 25 26 25 25 25 26 24 22 21 21 22 22 23 24 24 24 25 26 27 27 28 28 29 30 31 32 33 34 34 34 36 36 35 36 38 37 37 38 40 40 40
16 17 20 22 22 21 21 21 21 21 21 21 22 23 23 23 23 24 24 25 25 26 27 28 29 29 30 31 32 33 33 33 35 35 36 36 36 37 37 37 38 39 40 41
17 15 14 16 17 15 15 17 18 20 20 21 22 22 23 23 23 24 24 25 26 27 27 28 29 30 31 31 32 33 33 33 34 35 35 36 36 37 37 37 38 40 41 41

GEFSCGP_500_meanwind_108.txt.gz
Wind_Speed
14 13 12 11 10 10 8 7 7 10 14 17 17 17 17 18 19 19 18 16 15 13 9 7 6 5 4 9 12 14 17 16 15 16 16 14 13 12 11 10 10 9 8 7
13 12 13 13 12 10 8 7 8 11 15 17 18 18 18 19 20 18 17 14 12 11 9 6 5 3 3 7 11 13 16 17 16 15 14 14 12 12 12 11 11 10 9 8
13 13 15 14 14 11 7 7 10 13 15 17 19 18 18 18 18 16 13 11 11 10 9 6 5 2 2 6 10 12 14 15 16 15 13 13 13 12 13 12 11 10 10 10
14 15 16 15 14 11 9 8 11 13 16 18 18 18 15 16 15 12 9 9 10 9 8 6 5 1 3 6 10 12 14 15 14 14 13 13 14 14 14 13 12 11 11 10
13 16 17 17 14 12 9 10 12 15 17 19 18 18 16 15 12 9 8 8 8 8 7 6 5 1 5 7 9 10 13 14 14 15 14 14 15 14 14 13 13 12 12 11
14 17 18 17 16 14 12 13 14 15 18 19 19 19 17 13 9 8 6 6 7 6 5 4 4 3 5 6 8 9 10 12 14 14 15 15 15 15 14 14 14 14 13 12
16 17 18 18 17 16 15 15 17 17 16 17 19 17 15 12 9 7 5 5 5 5 4 3 2 2 3 5 6 8 9 11 12 14 14 15 15 16 15 14 14 14 13 13
16 16 17 18 18 17 15 17 19 19 17 17 19 18 14 13 9 6 5 4 5 4 3 2 2 2 3 4 6 7 9 11 11 12 14 15 15 15 15 14 14 14 14 13
17 16 17 19 19 18 16 17 18 20 19 20 18 17 14 11 9 7 7 6 4 3 2 2 1 2 2 4 6 7 9 11 11 12 12 13 14 13 14 15 14 15 15 14
21 20 18 19 21 19 18 17 19 21 21 21 19 17 15 9 9 9 8 6 3 2 1 1 1 1 1 3 5 7 8 10 11 12 12 13 13 13 14 15 15 16 16 16
26 26 21 22 23 21 21 20 20 21 23 23 21 18 15 13 12 10 8 6 4 2 1 1 0 1 2 3 5 7 8 9 11 12 12 12 13 13 14 15 16 17 17 17
31 30 28 25 25 25 24 23 23 23 23 23 23 21 17 15 14 11 8 6 4 2 2 1 2 2 2 3 4 7 8 10 11 12 12 12 13 13 14 15 17 18 18 19
34 34 33 29 27 28 28 26 24 24 24 23 22 21 18 17 13 12 10 6 4 4 3 3 3 3 3 4 4 6 9 10 11 12 13 13 14 14 15 16 17 19 19 20
39 38 37 34 31 31 30 29 27 25 25 24 22 21 20 17 16 14 11 8 7 5 5 4 5 6 6 6 6 7 9 10 11 12 13 14 15 15 16 17 19 20 21 22
42 41 40 37 35 34 33 32 30 28 27 26 24 21 20 18 16 15 13 11 9 8 6 6 6 7 8 8 7 7 10 10 12 12 12 14 15 16 17 18 19 21 22 24
41 42 41 40 37 36 35 33 32 30 28 27 26 24 22 20 19 17 14 11 10 9 8 8 9 9 9 9 10 10 11 11 12 13 14 15 17 18 19 20 21 23 24 24
40 41 40 39 39 38 37 35 33 33 32 30 27 24 22 19 18 16 14 13 12 12 11 11 11 11 11 12 13 13 14 14 14 15 16 18 19 20 21 22 22 23 26 27
36 38 39 38 38 40 36 34 34 33 31 29 27 25 21 19 17 16 15 15 14 13 13 13 14 14 14 14 15 16 17 17 17 18 19 20 22 23 24 24 24 26 27 29
31 33 35 37 37 37 35 33 32 30 30 28 26 25 22 19 18 17 16 16 15 14 14 14 15 16 16 16 17 18 19 20 21 22 22 22 24 25 26 26 26 27 28 29
27 29 31 31 33 33 32 31 32 31 30 27 24 21 20 20 19 18 18 16 14 14 15 16 16 18 19 20 20 21 22 23 23 24 25 26 26 28 28 28 29 30 30 31
23 26 27 28 30 30 29 29 31 31 27 25 23 22 21 20 19 19 19 16 15 16 17 18 18 19 20 21 22 22 24 25 26 27 28 29 30 30 31 32 33 33 33 34
19 22 26 27 28 28 27 27 28 28 26 25 24 23 22 20 18 18 18 17 16 17 18 19 20 21 21 22 23 24 25 27 28 29 29 30 31 31 32 34 33 32 33 33
16 19 21 24 26 27 26 25 24 24 24 24 23 22 21 19 18 17 17 17 17 18 19 20 21 21 23 24 25 26 27 28 29 30 31 31 32 32 33 32 33 33 34 34
14 16 19 20 21 23 22 21 22 22 23 20 20 19 19 18 17 16 16 16 16 18 19 20 21 22 23 24 25 27 28 29 30 31 31 32 32 33 34 34 35 35 35 35
10 12 15 17 17 18 19 18 18 18 19 19 20 19 19 19 17 17 16 16 17 18 19 20 21 23 24 25 27 28 29 30 31 32 33 34 34 35 35 36 36 36 37 38
8 9 11 12 13 13 14 14 16 17 17 17 18 17 16 16 15 16 17 17 18 19 20 21 22 24 25 26 28 29 30 31 32 33 34 34 34 35 36 36 37 38 38 38